Time,TemperatureF,DewpointF,PressureIn,WindDirection,WindDirectionDegrees,WindSpeedMPH,WindSpeedGustMPH,Humidity,HourlyPrecipIn,Conditions,Clouds,dailyrainin,SoftwareType,DateUTC
2013-04-24 00:00:00,40.2,35.2,30.17,East,98,0.0,0.0,82,0.00,,,0.00,VWS V14.01,2013-04-24 04:00:00,
2013-04-24 00:01:00,40.2,35.2,30.17,East,98,0.0,0.0,82,0.00,,,0.00,VWS V14.01,2013-04-24 04:01:00,
2013-04-24 00:05:00,39.9,34.9,30.17,East,98,0.0,0.0,82,0.00,,,0.00,VWS V14.01,2013-04-24 04:05:00,
2013-04-24 00:06:00,39.8,34.8,30.17,East,98,0.0,0.0,82,0.00,,,0.00,VWS V14.01,2013-04-24 04:06:00,
2013-04-24 00:10:00,39.6,34.6,30.17,East,98,0.0,0.0,82,0.00,,,0.00,VWS V14.01,2013-04-24 04:10:00,
2013-04-24 00:11:00,39.6,34.6,30.17,East,98,0.0,0.0,82,0.00,,,0.00,VWS V14.01,2013-04-24 04:11:00,
2013-04-24 00:12:00,39.5,34.8,30.17,East,98,0.0,0.0,83,0.00,,,0.00,VWS V14.01,2013-04-24 04:12:00,
2013-04-24 00:15:00,39.4,34.7,30.17,East,98,1.0,2.0,83,0.00,,,0.00,VWS V14.01,2013-04-24 04:15:00,
2013-04-24 00:16:00,39.3,34.6,30.17,East,98,1.0,2.0,83,0.00,,,0.00,VWS V14.01,2013-04-24 04:16:00,
2013-04-24 00:17:00,39.3,34.6,30.17,East,98,0.0,2.0,83,0.00,,,0.00,VWS V14.01,2013-04-24 04:17:00,
2013-04-24 00:20:00,39.2,34.8,30.17,East,98,1.0,2.0,84,0.00,,,0.00,VWS V14.01,2013-04-24 04:20:00,
2013-04-24 00:21:00,39.2,34.8,30.16,East,98,0.0,2.0,84,0.00,,,0.00,VWS V14.01,2013-04-24 04:21:00,
2013-04-24 00:22:00,39.2,34.8,30.16,NE,36,1.0,3.0,84,0.00,,,0.00,VWS V14.01,2013-04-24 04:22:00,
2013-04-24 00:25:00,39.3,34.9,30.16,North,349,0.0,3.0,84,0.00,,,0.00,VWS V14.01,2013-04-24 04:25:00,
2013-04-24 00:26:00,39.4,35.0,30.16,North,349,0.0,0.0,84,0.00,,,0.00,VWS V14.01,2013-04-24 04:26:00,
2013-04-24 00:27:00,39.4,35.0,30.16,North,349,0.0,0.0,84,0.00,,,0.00,VWS V14.01,2013-04-24 04:27:00,
2013-04-24 00:30:00,39.4,35.0,30.15,North,349,0.0,2.0,84,0.00,,,0.00,VWS V14.01,2013-04-24 04:30:00,
2013-04-24 00:31:00,39.3,34.9,30.15,North,349,1.0,3.0,84,0.00,,,0.00,VWS V14.01,2013-04-24 04:31:00,
2013-04-24 00:32:00,39.3,34.9,30.16,North,349,1.0,3.0,84,0.00,,,0.00,VWS V14.01,2013-04-24 04:32:00,
2013-04-24 00:35:00,39.2,34.8,30.16,North,349,0.0,3.0,84,0.00,,,0.00,VWS V14.01,2013-04-24 04:35:00,
2013-04-24 00:36:00,39.1,34.7,30.15,North,349,0.0,2.0,84,0.00,,,0.00,VWS V14.01,2013-04-24 04:36:00,
2013-04-24 00:37:00,39.1,34.7,30.15,North,349,0.0,2.0,84,0.00,,,0.00,VWS V14.01,2013-04-24 04:37:00,
2013-04-24 00:40:00,38.9,34.5,30.15,North,349,0.0,2.0,84,0.00,,,0.00,VWS V14.01,2013-04-24 04:40:00,
2013-04-24 00:42:00,38.8,34.4,30.15,North,349,0.0,0.0,84,0.00,,,0.00,VWS V14.01,2013-04-24 04:42:00,
2013-04-24 00:43:00,38.7,34.3,30.15,North,349,0.0,0.0,84,0.00,,,0.00,VWS V14.01,2013-04-24 04:43:00,
2013-04-24 00:45:00,38.6,34.2,30.15,North,349,0.0,0.0,84,0.00,,,0.00,VWS V14.01,2013-04-24 04:45:00,
2013-04-24 00:47:00,38.4,34.0,30.15,North,349,0.0,0.0,84,0.00,,,0.00,VWS V14.01,2013-04-24 04:47:00,
2013-04-24 00:48:00,38.3,33.9,30.15,North,349,0.0,1.0,84,0.00,,,0.00,VWS V14.01,2013-04-24 04:48:00,
2013-04-24 00:50:00,38.2,33.8,30.14,North,349,0.0,1.0,84,0.00,,,0.00,VWS V14.01,2013-04-24 04:50:00,
2013-04-24 00:52:00,38.0,33.6,30.14,North,349,0.0,0.0,84,0.00,,,0.00,VWS V14.01,2013-04-24 04:52:00,
2013-04-24 00:53:00,37.9,33.5,30.14,North,349,0.0,0.0,84,0.00,,,0.00,VWS V14.01,2013-04-24 04:53:00,
2013-04-24 00:54:00,37.9,33.5,30.14,North,349,0.0,0.0,84,0.00,,,0.00,VWS V14.01,2013-04-24 04:54:00,
2013-04-24 00:55:00,37.8,33.4,30.14,North,349,0.0,0.0,84,0.00,,,0.00,VWS V14.01,2013-04-24 04:55:00,
2013-04-24 00:57:00,37.7,33.6,30.14,North,349,0.0,0.0,85,0.00,,,0.00,VWS V14.01,2013-04-24 04:57:00,
2013-04-24 00:58:00,37.7,33.6,30.14,North,349,0.0,0.0,85,0.00,,,0.00,VWS V14.01,2013-04-24 04:58:00,
2013-04-24 00:59:00,37.6,33.5,30.14,North,349,0.0,0.0,85,0.00,,,0.00,VWS V14.01,2013-04-24 04:59:00,
2013-04-24 01:00:00,37.6,33.5,30.14,North,349,0.0,0.0,85,0.00,,,0.00,VWS V14.01,2013-04-24 05:00:00,
2013-04-24 01:02:00,37.6,33.5,30.13,North,349,0.0,0.0,85,0.00,,,0.00,VWS V14.01,2013-04-24 05:02:00,
2013-04-24 01:03:00,37.6,33.5,30.13,North,349,1.0,2.0,85,0.00,,,0.00,VWS V14.01,2013-04-24 05:03:00,
2013-04-24 01:04:00,37.5,33.7,30.13,North,349,0.0,2.0,86,0.00,,,0.00,VWS V14.01,2013-04-24 05:04:00,
2013-04-24 01:05:00,37.5,33.7,30.13,North,349,0.0,0.0,86,0.00,,,0.00,VWS V14.01,2013-04-24 05:05:00,
2013-04-24 01:08:00,37.5,33.7,30.13,North,349,0.0,0.0,86,0.00,,,0.00,VWS V14.01,2013-04-24 05:08:00,
2013-04-24 01:09:00,37.5,33.7,30.13,North,349,0.0,0.0,86,0.00,,,0.00,VWS V14.01,2013-04-24 05:09:00,
2013-04-24 01:10:00,37.5,33.7,30.13,North,349,0.0,0.0,86,0.00,,,0.00,VWS V14.01,2013-04-24 05:10:00,
2013-04-24 01:13:00,37.3,33.5,30.13,North,349,0.0,1.0,86,0.00,,,0.00,VWS V14.01,2013-04-24 05:13:00,
2013-04-24 01:14:00,37.2,33.4,30.13,North,349,0.0,2.0,86,0.00,,,0.00,VWS V14.01,2013-04-24 05:14:00,
2013-04-24 01:15:00,37.1,33.3,30.13,North,350,0.0,0.0,86,0.00,,,0.00,VWS V14.01,2013-04-24 05:15:00,
2013-04-24 01:18:00,37.2,33.4,30.13,North,349,2.0,2.0,86,0.00,,,0.00,VWS V14.01,2013-04-24 05:18:00,
2013-04-24 01:19:00,37.1,33.3,30.13,North,349,1.0,3.0,86,0.00,,,0.00,VWS V14.01,2013-04-24 05:19:00,
2013-04-24 01:20:00,37.1,33.3,30.13,North,349,1.0,1.0,86,0.00,,,0.00,VWS V14.01,2013-04-24 05:20:00,
2013-04-24 01:23:00,37.2,33.7,30.13,North,349,0.0,1.0,87,0.00,,,0.00,VWS V14.01,2013-04-24 05:23:00,
2013-04-24 01:25:00,37.2,33.7,30.12,North,349,0.0,0.0,87,0.00,,,0.00,VWS V14.01,2013-04-24 05:25:00,
2013-04-24 01:28:00,37.1,33.6,30.12,North,349,1.0,2.0,87,0.00,,,0.00,VWS V14.01,2013-04-24 05:28:00,
2013-04-24 01:29:00,37.1,33.6,30.12,North,349,0.0,2.0,87,0.00,,,0.00,VWS V14.01,2013-04-24 05:29:00,
2013-04-24 01:30:00,37.1,33.6,30.12,North,349,0.0,2.0,87,0.00,,,0.00,VWS V14.01,2013-04-24 05:30:00,
2013-04-24 01:33:00,36.9,33.4,30.12,North,349,0.0,1.0,87,0.00,,,0.00,VWS V14.01,2013-04-24 05:33:00,
2013-04-24 01:34:00,36.9,33.4,30.12,North,349,0.0,1.0,87,0.00,,,0.00,VWS V14.01,2013-04-24 05:34:00,
2013-04-24 01:35:00,36.9,33.4,30.12,North,349,0.0,0.0,87,0.00,,,0.00,VWS V14.01,2013-04-24 05:35:00,
2013-04-24 01:38:00,36.8,33.3,30.12,North,349,0.0,0.0,87,0.00,,,0.00,VWS V14.01,2013-04-24 05:38:00,
2013-04-24 01:39:00,36.8,33.3,30.12,North,349,1.0,1.0,87,0.00,,,0.00,VWS V14.01,2013-04-24 05:39:00,
2013-04-24 01:40:00,36.7,33.2,30.12,North,350,1.0,1.0,87,0.00,,,0.00,VWS V14.01,2013-04-24 05:40:00,
2013-04-24 01:44:00,36.6,33.1,30.12,North,349,1.0,2.0,87,0.00,,,0.00,VWS V14.01,2013-04-24 05:44:00,
2013-04-24 01:45:00,36.5,33.0,30.12,North,349,1.0,1.0,87,0.00,,,0.00,VWS V14.01,2013-04-24 05:45:00,
2013-04-24 01:46:00,36.5,33.3,30.12,North,349,0.0,1.0,88,0.00,,,0.00,VWS V14.01,2013-04-24 05:46:00,
2013-04-24 01:49:00,36.5,33.3,30.12,North,349,2.0,2.0,88,0.00,,,0.00,VWS V14.01,2013-04-24 05:49:00,
2013-04-24 01:50:00,36.5,33.3,30.12,North,349,1.0,1.0,88,0.00,,,0.00,VWS V14.01,2013-04-24 05:50:00,
2013-04-24 01:51:00,36.5,33.3,30.12,North,349,1.0,2.0,88,0.00,,,0.00,VWS V14.01,2013-04-24 05:51:00,
2013-04-24 01:54:00,36.5,33.3,30.11,NNW,346,1.0,3.0,88,0.00,,,0.00,VWS V14.01,2013-04-24 05:54:00,
2013-04-24 01:55:00,36.5,33.3,30.11,NNW,346,1.0,2.0,88,0.00,,,0.00,VWS V14.01,2013-04-24 05:55:00,
2013-04-24 01:56:00,36.5,33.3,30.11,NNW,346,2.0,2.0,88,0.00,,,0.00,VWS V14.01,2013-04-24 05:56:00,
2013-04-24 01:59:00,36.5,33.3,30.11,NNW,346,2.0,2.0,88,0.00,,,0.00,VWS V14.01,2013-04-24 05:59:00,
2013-04-24 02:00:00,36.5,33.3,30.11,NNW,346,0.0,0.0,88,0.00,,,0.00,VWS V14.01,2013-04-24 06:00:00,
2013-04-24 02:01:00,36.6,33.4,30.11,NNW,346,0.0,0.0,88,0.00,,,0.00,VWS V14.01,2013-04-24 06:01:00,
2013-04-24 02:04:00,36.6,33.7,30.11,NNW,346,0.0,2.0,89,0.00,,,0.00,VWS V14.01,2013-04-24 06:04:00,
2013-04-24 02:05:00,36.6,33.7,30.11,NNW,346,0.0,0.0,89,0.00,,,0.00,VWS V14.01,2013-04-24 06:05:00,
2013-04-24 02:06:00,36.6,33.4,30.11,NNW,346,0.0,0.0,88,0.00,,,0.00,VWS V14.01,2013-04-24 06:06:00,
2013-04-24 02:09:00,36.6,33.4,30.11,NNW,346,0.0,0.0,88,0.00,,,0.00,VWS V14.01,2013-04-24 06:09:00,
2013-04-24 02:10:00,36.5,33.3,30.11,NNW,346,0.0,0.0,88,0.00,,,0.00,VWS V14.01,2013-04-24 06:10:00,
2013-04-24 02:11:00,36.5,33.3,30.11,NNW,346,0.0,0.0,88,0.00,,,0.00,VWS V14.01,2013-04-24 06:11:00,
2013-04-24 02:14:00,36.3,33.1,30.11,NNW,346,0.0,0.0,88,0.00,,,0.00,VWS V14.01,2013-04-24 06:14:00,
2013-04-24 02:15:00,36.2,33.0,30.11,NNW,346,0.0,0.0,88,0.00,,,0.00,VWS V14.01,2013-04-24 06:15:00,
2013-04-24 02:16:00,36.1,32.9,30.11,NNW,346,0.0,0.0,88,0.00,,,0.00,VWS V14.01,2013-04-24 06:16:00,
2013-04-24 02:17:00,36.1,32.9,30.11,NNW,346,0.0,0.0,88,0.00,,,0.00,VWS V14.01,2013-04-24 06:17:00,
2013-04-24 02:19:00,36.2,33.3,30.11,NNW,346,0.0,3.0,89,0.00,,,0.00,VWS V14.01,2013-04-24 06:19:00,
2013-04-24 02:20:00,36.2,33.3,30.11,NNW,346,2.0,3.0,89,0.00,,,0.00,VWS V14.01,2013-04-24 06:20:00,
2013-04-24 02:21:00,36.2,33.0,30.11,NNW,345,3.0,3.0,88,0.00,,,0.00,VWS V14.01,2013-04-24 06:21:00,
2013-04-24 02:22:00,36.2,33.0,30.11,NNW,345,1.0,3.0,88,0.00,,,0.00,VWS V14.01,2013-04-24 06:22:00,
2013-04-24 02:25:00,36.3,33.4,30.11,NNW,345,0.0,0.0,89,0.00,,,0.00,VWS V14.01,2013-04-24 06:25:00,
2013-04-24 02:26:00,36.4,33.5,30.10,NNW,345,0.0,0.0,89,0.00,,,0.00,VWS V14.01,2013-04-24 06:26:00,
2013-04-24 02:27:00,36.4,33.5,30.10,NNW,345,0.0,0.0,89,0.00,,,0.00,VWS V14.01,2013-04-24 06:27:00,
2013-04-24 02:30:00,36.5,33.6,30.10,NNW,345,0.0,2.0,89,0.00,,,0.00,VWS V14.01,2013-04-24 06:30:00,
2013-04-24 02:31:00,36.4,33.5,30.10,NNW,345,1.0,2.0,89,0.00,,,0.00,VWS V14.01,2013-04-24 06:31:00,
2013-04-24 02:32:00,36.4,33.5,30.10,NNW,345,0.0,2.0,89,0.00,,,0.00,VWS V14.01,2013-04-24 06:32:00,
2013-04-24 02:35:00,36.3,33.4,30.10,NNW,345,0.0,0.0,89,0.00,,,0.00,VWS V14.01,2013-04-24 06:35:00,
2013-04-24 02:36:00,36.2,33.3,30.10,NNW,345,0.0,0.0,89,0.00,,,0.00,VWS V14.01,2013-04-24 06:36:00,
2013-04-24 02:37:00,36.2,33.3,30.10,NNW,345,0.0,0.0,89,0.00,,,0.00,VWS V14.01,2013-04-24 06:37:00,
2013-04-24 02:40:00,36.0,33.1,30.10,NNW,345,0.0,0.0,89,0.00,,,0.00,VWS V14.01,2013-04-24 06:40:00,
2013-04-24 02:41:00,36.0,33.1,30.10,NNW,345,3.0,3.0,89,0.00,,,0.00,VWS V14.01,2013-04-24 06:41:00,
2013-04-24 02:42:00,36.0,33.1,30.10,NNW,345,2.0,3.0,89,0.00,,,0.00,VWS V14.01,2013-04-24 06:42:00,
2013-04-24 02:45:00,35.8,32.9,30.10,NNW,345,0.0,0.0,89,0.00,,,0.00,VWS V14.01,2013-04-24 06:45:00,
2013-04-24 02:46:00,35.8,32.9,30.10,NNW,345,0.0,0.0,89,0.00,,,0.00,VWS V14.01,2013-04-24 06:46:00,
2013-04-24 02:47:00,35.8,32.9,30.10,NNW,345,0.0,0.0,89,0.00,,,0.00,VWS V14.01,2013-04-24 06:47:00,
2013-04-24 02:50:00,35.7,32.8,30.11,NNW,345,0.0,0.0,89,0.00,,,0.00,VWS V14.01,2013-04-24 06:50:00,
2013-04-24 02:51:00,35.7,32.8,30.10,NNW,345,0.0,0.0,89,0.00,,,0.00,VWS V14.01,2013-04-24 06:51:00,
2013-04-24 02:52:00,35.8,32.9,30.10,NNW,345,0.0,0.0,89,0.00,,,0.00,VWS V14.01,2013-04-24 06:52:00,
2013-04-24 02:55:00,35.9,33.3,30.10,NNW,345,0.0,0.0,90,0.00,,,0.00,VWS V14.01,2013-04-24 06:55:00,
2013-04-24 02:56:00,36.0,33.4,30.10,NNW,345,0.0,0.0,90,0.00,,,0.00,VWS V14.01,2013-04-24 06:56:00,
2013-04-24 02:57:00,36.0,33.4,30.10,NNW,345,0.0,1.0,90,0.00,,,0.00,VWS V14.01,2013-04-24 06:57:00,
2013-04-24 03:00:00,36.1,33.5,30.10,NNW,345,0.0,0.0,90,0.00,,,0.00,VWS V14.01,2013-04-24 07:00:00,
2013-04-24 03:01:00,36.2,33.6,30.10,NNW,345,0.0,0.0,90,0.00,,,0.00,VWS V14.01,2013-04-24 07:01:00,
2013-04-24 03:02:00,36.1,33.5,30.10,NNW,345,0.0,0.0,90,0.00,,,0.00,VWS V14.01,2013-04-24 07:02:00,
2013-04-24 03:03:00,36.2,33.6,30.10,NNW,345,0.0,1.0,90,0.00,,,0.00,VWS V14.01,2013-04-24 07:03:00,
2013-04-24 03:05:00,36.2,33.6,30.10,NNW,345,0.0,1.0,90,0.00,,,0.00,VWS V14.01,2013-04-24 07:05:00,
2013-04-24 03:06:00,36.2,33.6,30.10,NNW,345,1.0,1.0,90,0.00,,,0.00,VWS V14.01,2013-04-24 07:06:00,
2013-04-24 03:07:00,36.2,33.6,30.10,NNW,345,1.0,1.0,90,0.00,,,0.00,VWS V14.01,2013-04-24 07:07:00,
2013-04-24 03:08:00,36.2,33.6,30.10,NNW,345,0.0,1.0,90,0.00,,,0.00,VWS V14.01,2013-04-24 07:08:00,
2013-04-24 03:10:00,36.1,33.5,30.10,NNW,345,2.0,2.0,90,0.00,,,0.00,VWS V14.01,2013-04-24 07:10:00,
2013-04-24 03:12:00,36.2,33.6,30.10,NNW,340,2.0,3.0,90,0.00,,,0.00,VWS V14.01,2013-04-24 07:12:00,
2013-04-24 03:13:00,36.2,33.6,30.10,NW,315,4.0,4.0,90,0.00,,,0.00,VWS V14.01,2013-04-24 07:13:00,
2013-04-24 03:15:00,36.5,33.8,30.10,NW,315,1.0,4.0,90,0.00,,,0.00,VWS V14.01,2013-04-24 07:15:00,
2013-04-24 03:17:00,36.6,34.0,30.10,NW,315,1.0,4.0,90,0.00,,,0.00,VWS V14.01,2013-04-24 07:17:00,
2013-04-24 03:18:00,36.8,34.4,30.10,NW,315,2.0,4.0,91,0.00,,,0.00,VWS V14.01,2013-04-24 07:18:00,
2013-04-24 03:20:00,36.9,34.5,30.10,NW,315,2.0,3.0,91,0.00,,,0.00,VWS V14.01,2013-04-24 07:20:00,
2013-04-24 03:22:00,37.0,34.3,30.10,NW,316,3.0,4.0,90,0.00,,,0.00,VWS V14.01,2013-04-24 07:22:00,
2013-04-24 03:23:00,37.1,34.7,30.10,NW,316,3.0,5.0,91,0.00,,,0.00,VWS V14.01,2013-04-24 07:23:00,
2013-04-24 03:25:00,37.4,35.0,30.09,NW,323,3.0,5.0,91,0.00,,,0.00,VWS V14.01,2013-04-24 07:25:00,
2013-04-24 03:27:00,37.5,35.1,30.09,NW,323,3.0,5.0,91,0.00,,,0.00,VWS V14.01,2013-04-24 07:27:00,
2013-04-24 03:28:00,37.5,35.1,30.09,NW,322,4.0,5.0,91,0.00,,,0.00,VWS V14.01,2013-04-24 07:28:00,
2013-04-24 03:30:00,37.6,35.2,30.09,NW,312,4.0,5.0,91,0.00,,,0.00,VWS V14.01,2013-04-24 07:30:00,
2013-04-24 03:31:00,37.7,35.3,30.09,NW,320,3.0,5.0,91,0.00,,,0.00,VWS V14.01,2013-04-24 07:31:00,
2013-04-24 03:32:00,37.8,35.4,30.09,NW,320,1.0,5.0,91,0.00,,,0.00,VWS V14.01,2013-04-24 07:32:00,
2013-04-24 03:33:00,37.8,35.4,30.09,NW,320,3.0,5.0,91,0.00,,,0.00,VWS V14.01,2013-04-24 07:33:00,
2013-04-24 03:34:00,37.9,35.2,30.09,NW,320,3.0,5.0,90,0.00,,,0.00,VWS V14.01,2013-04-24 07:34:00,
2013-04-24 03:35:00,37.9,35.2,30.09,NNW,327,5.0,5.0,90,0.00,,,0.00,VWS V14.01,2013-04-24 07:35:00,
2013-04-24 03:36:00,38.0,35.6,30.09,NNW,329,3.0,5.0,91,0.00,,,0.00,VWS V14.01,2013-04-24 07:36:00,
2013-04-24 03:37:00,38.1,35.4,30.09,NNW,329,1.0,5.0,90,0.00,,,0.00,VWS V14.01,2013-04-24 07:37:00,
2013-04-24 03:38:00,38.1,35.7,30.09,NNW,330,4.0,5.0,91,0.00,,,0.00,VWS V14.01,2013-04-24 07:38:00,
2013-04-24 03:39:00,38.2,35.8,30.09,NNW,332,3.0,5.0,91,0.00,,,0.00,VWS V14.01,2013-04-24 07:39:00,
2013-04-24 03:40:00,38.2,35.8,30.09,NNW,331,2.0,5.0,91,0.00,,,0.00,VWS V14.01,2013-04-24 07:40:00,
2013-04-24 03:41:00,38.3,35.6,30.09,NNW,328,4.0,5.0,90,0.00,,,0.00,VWS V14.01,2013-04-24 07:41:00,
2013-04-24 03:42:00,38.3,35.6,30.09,NNW,328,3.0,5.0,90,0.00,,,0.00,VWS V14.01,2013-04-24 07:42:00,
2013-04-24 03:43:00,38.3,35.6,30.09,NNW,328,3.0,5.0,90,0.00,,,0.00,VWS V14.01,2013-04-24 07:43:00,
2013-04-24 03:44:00,38.3,35.6,30.09,NW,323,5.0,6.0,90,0.00,,,0.00,VWS V14.01,2013-04-24 07:44:00,
2013-04-24 03:45:00,38.3,35.6,30.09,NW,323,4.0,6.0,90,0.00,,,0.00,VWS V14.01,2013-04-24 07:45:00,
2013-04-24 03:46:00,38.3,35.6,30.09,NW,321,5.0,5.0,90,0.00,,,0.00,VWS V14.01,2013-04-24 07:46:00,
2013-04-24 03:47:00,38.3,35.6,30.09,NW,321,4.0,5.0,90,0.00,,,0.00,VWS V14.01,2013-04-24 07:47:00,
2013-04-24 03:48:00,38.3,35.6,30.09,NW,310,3.0,6.0,90,0.00,,,0.00,VWS V14.01,2013-04-24 07:48:00,
2013-04-24 03:50:00,38.2,35.5,30.09,NW,311,5.0,6.0,90,0.00,,,0.00,VWS V14.01,2013-04-24 07:50:00,
2013-04-24 03:51:00,38.3,35.6,30.08,NW,309,4.0,5.0,90,0.00,,,0.00,VWS V14.01,2013-04-24 07:51:00,
2013-04-24 03:53:00,38.3,35.6,30.08,NW,307,4.0,7.0,90,0.00,,,0.00,VWS V14.01,2013-04-24 07:53:00,
2013-04-24 03:54:00,38.3,35.6,30.08,NW,309,4.0,7.0,90,0.00,,,0.00,VWS V14.01,2013-04-24 07:54:00,
2013-04-24 03:55:00,38.3,35.6,30.08,NW,309,3.0,3.0,90,0.00,,,0.00,VWS V14.01,2013-04-24 07:55:00,
2013-04-24 03:57:00,38.4,35.7,30.08,NW,309,4.0,4.0,90,0.00,,,0.00,VWS V14.01,2013-04-24 07:57:00,
2013-04-24 03:58:00,38.4,35.7,30.08,NW,311,4.0,5.0,90,0.00,,,0.00,VWS V14.01,2013-04-24 07:58:00,
2013-04-24 03:59:00,38.4,35.7,30.08,NW,311,2.0,5.0,90,0.00,,,0.00,VWS V14.01,2013-04-24 07:59:00,
2013-04-24 04:00:00,38.4,35.7,30.08,NW,311,4.0,5.0,90,0.00,,,0.00,VWS V14.01,2013-04-24 08:00:00,
2013-04-24 04:02:00,38.4,35.7,30.07,NW,311,4.0,5.0,90,0.00,,,0.00,VWS V14.01,2013-04-24 08:02:00,
2013-04-24 04:03:00,38.4,35.7,30.07,NW,311,3.0,5.0,90,0.00,,,0.00,VWS V14.01,2013-04-24 08:03:00,
2013-04-24 04:04:00,38.4,35.7,30.07,NW,311,3.0,5.0,90,0.00,,,0.00,VWS V14.01,2013-04-24 08:04:00,
2013-04-24 04:05:00,38.4,35.7,30.07,NW,311,4.0,4.0,90,0.00,,,0.00,VWS V14.01,2013-04-24 08:05:00,
2013-04-24 04:07:00,38.3,35.6,30.07,NW,311,3.0,4.0,90,0.00,,,0.00,VWS V14.01,2013-04-24 08:07:00,
2013-04-24 04:08:00,38.3,35.6,30.07,NW,311,3.0,4.0,90,0.00,,,0.00,VWS V14.01,2013-04-24 08:08:00,
2013-04-24 04:09:00,38.2,35.5,30.07,NW,311,2.0,4.0,90,0.00,,,0.00,VWS V14.01,2013-04-24 08:09:00,
2013-04-24 04:10:00,38.2,35.5,30.07,NW,311,2.0,3.0,90,0.00,,,0.00,VWS V14.01,2013-04-24 08:10:00,
2013-04-24 04:12:00,38.1,35.2,30.07,NW,309,2.0,7.0,89,0.00,,,0.00,VWS V14.01,2013-04-24 08:12:00,
2013-04-24 04:13:00,38.0,35.0,30.07,NW,309,3.0,7.0,89,0.00,,,0.00,VWS V14.01,2013-04-24 08:13:00,
2013-04-24 04:14:00,38.0,35.3,30.07,NW,309,4.0,7.0,90,0.00,,,0.00,VWS V14.01,2013-04-24 08:14:00,
2013-04-24 04:15:00,38.0,35.3,30.07,NW,315,3.0,7.0,90,0.00,,,0.00,VWS V14.01,2013-04-24 08:15:00,
2013-04-24 04:16:00,38.0,35.3,30.07,NW,315,4.0,4.0,90,0.00,,,0.00,VWS V14.01,2013-04-24 08:16:00,
2013-04-24 04:18:00,38.0,35.3,30.07,NW,315,2.0,4.0,90,0.00,,,0.00,VWS V14.01,2013-04-24 08:18:00,
2013-04-24 04:19:00,38.0,35.3,30.07,NW,315,3.0,4.0,90,0.00,,,0.00,VWS V14.01,2013-04-24 08:19:00,
2013-04-24 04:20:00,38.0,35.3,30.07,NW,315,3.0,4.0,90,0.00,,,0.00,VWS V14.01,2013-04-24 08:20:00,
2013-04-24 04:21:00,37.9,35.2,30.07,NW,315,4.0,4.0,90,0.00,,,0.00,VWS V14.01,2013-04-24 08:21:00,
2013-04-24 04:23:00,37.8,35.1,30.07,NW,315,3.0,4.0,90,0.00,,,0.00,VWS V14.01,2013-04-24 08:23:00,
2013-04-24 04:24:00,37.7,35.0,30.07,NW,315,1.0,4.0,90,0.00,,,0.00,VWS V14.01,2013-04-24 08:24:00,
2013-04-24 04:25:00,37.7,35.0,30.07,NW,315,2.0,4.0,90,0.00,,,0.00,VWS V14.01,2013-04-24 08:25:00,
2013-04-24 04:26:00,37.6,34.9,30.06,NW,315,1.0,4.0,90,0.00,,,0.00,VWS V14.01,2013-04-24 08:26:00,
2013-04-24 04:28:00,37.6,34.9,30.07,NW,315,0.0,4.0,90,0.00,,,0.00,VWS V14.01,2013-04-24 08:28:00,
2013-04-24 04:29:00,37.6,34.9,30.07,NW,315,0.0,4.0,90,0.00,,,0.00,VWS V14.01,2013-04-24 08:29:00,
2013-04-24 04:30:00,37.5,34.8,30.07,NW,315,0.0,4.0,90,0.00,,,0.00,VWS V14.01,2013-04-24 08:30:00,
2013-04-24 04:31:00,37.5,34.8,30.07,NW,315,0.0,0.0,90,0.00,,,0.00,VWS V14.01,2013-04-24 08:31:00,
2013-04-24 04:33:00,37.4,34.7,30.07,NW,315,0.0,1.0,90,0.00,,,0.00,VWS V14.01,2013-04-24 08:33:00,
2013-04-24 04:34:00,37.3,34.6,30.07,NW,315,0.0,1.0,90,0.00,,,0.00,VWS V14.01,2013-04-24 08:34:00,
2013-04-24 04:35:00,37.3,34.6,30.07,NW,315,0.0,1.0,90,0.00,,,0.00,VWS V14.01,2013-04-24 08:35:00,
2013-04-24 04:37:00,37.1,34.4,30.07,NW,315,0.0,2.0,90,0.00,,,0.00,VWS V14.01,2013-04-24 08:37:00,
2013-04-24 04:38:00,37.0,34.3,30.07,NW,315,2.0,2.0,90,0.00,,,0.00,VWS V14.01,2013-04-24 08:38:00,
2013-04-24 04:39:00,37.0,34.3,30.07,NW,315,1.0,2.0,90,0.00,,,0.00,VWS V14.01,2013-04-24 08:39:00,
2013-04-24 04:40:00,37.0,34.3,30.06,NW,315,2.0,2.0,90,0.00,,,0.00,VWS V14.01,2013-04-24 08:40:00,
2013-04-24 04:42:00,37.1,34.4,30.06,NW,315,2.0,2.0,90,0.00,,,0.00,VWS V14.01,2013-04-24 08:42:00,
2013-04-24 04:43:00,37.1,34.4,30.06,NW,315,3.0,3.0,90,0.00,,,0.00,VWS V14.01,2013-04-24 08:43:00,
2013-04-24 04:44:00,37.1,34.4,30.06,NW,315,2.0,3.0,90,0.00,,,0.00,VWS V14.01,2013-04-24 08:44:00,
2013-04-24 04:45:00,37.1,34.4,30.06,NW,315,2.0,4.0,90,0.00,,,0.00,VWS V14.01,2013-04-24 08:45:00,
2013-04-24 04:47:00,37.3,34.9,30.06,NW,315,3.0,4.0,91,0.00,,,0.00,VWS V14.01,2013-04-24 08:47:00,
2013-04-24 04:48:00,37.6,35.2,30.06,NW,317,3.0,4.0,91,0.00,,,0.00,VWS V14.01,2013-04-24 08:48:00,
2013-04-24 04:49:00,37.6,35.2,30.06,NW,317,2.0,4.0,91,0.00,,,0.00,VWS V14.01,2013-04-24 08:49:00,
2013-04-24 04:50:00,37.9,35.5,30.06,NW,317,2.0,2.0,91,0.00,,,0.00,VWS V14.01,2013-04-24 08:50:00,
2013-04-24 04:52:00,38.1,35.7,30.06,NW,317,0.0,3.0,91,0.00,,,0.00,VWS V14.01,2013-04-24 08:52:00,
2013-04-24 04:54:00,38.1,35.7,30.06,NW,317,0.0,3.0,91,0.00,,,0.00,VWS V14.01,2013-04-24 08:54:00,
2013-04-24 04:55:00,38.1,35.7,30.06,NW,317,2.0,3.0,91,0.00,,,0.00,VWS V14.01,2013-04-24 08:55:00,
2013-04-24 04:57:00,37.9,35.2,30.06,NW,317,0.0,3.0,90,0.00,,,0.00,VWS V14.01,2013-04-24 08:57:00,
2013-04-24 04:59:00,37.8,35.1,30.06,NW,317,0.0,3.0,90,0.00,,,0.00,VWS V14.01,2013-04-24 08:59:00,
2013-04-24 05:00:00,37.6,34.9,30.06,NW,317,0.0,0.0,90,0.00,,,0.00,VWS V14.01,2013-04-24 09:00:00,
2013-04-24 05:01:00,37.5,34.8,30.06,NW,317,0.0,0.0,90,0.00,,,0.00,VWS V14.01,2013-04-24 09:01:00,
2013-04-24 05:02:00,37.4,34.7,30.06,NW,317,0.0,0.0,90,0.00,,,0.00,VWS V14.01,2013-04-24 09:02:00,
2013-04-24 05:04:00,37.3,34.6,30.06,NW,317,0.0,0.0,90,0.00,,,0.00,VWS V14.01,2013-04-24 09:04:00,
2013-04-24 05:05:00,37.2,34.5,30.06,NW,317,0.0,0.0,90,0.00,,,0.00,VWS V14.01,2013-04-24 09:05:00,
2013-04-24 05:06:00,37.1,34.4,30.06,NW,317,0.0,1.0,90,0.00,,,0.00,VWS V14.01,2013-04-24 09:06:00,
2013-04-24 05:07:00,37.0,34.3,30.06,NW,317,0.0,1.0,90,0.00,,,0.00,VWS V14.01,2013-04-24 09:07:00,
2013-04-24 05:09:00,37.0,34.3,30.06,NW,317,0.0,1.0,90,0.00,,,0.00,VWS V14.01,2013-04-24 09:09:00,
2013-04-24 05:10:00,37.0,34.3,30.06,NW,317,1.0,1.0,90,0.00,,,0.00,VWS V14.01,2013-04-24 09:10:00,
2013-04-24 05:11:00,37.0,34.3,30.06,NW,317,0.0,2.0,90,0.00,,,0.00,VWS V14.01,2013-04-24 09:11:00,
2013-04-24 05:13:00,36.9,34.2,30.06,NW,317,1.0,3.0,90,0.00,,,0.00,VWS V14.01,2013-04-24 09:13:00,
2013-04-24 05:14:00,37.0,34.6,30.06,NW,317,1.0,3.0,91,0.00,,,0.00,VWS V14.01,2013-04-24 09:14:00,
2013-04-24 05:15:00,37.0,34.6,30.06,NW,317,3.0,3.0,91,0.00,,,0.00,VWS V14.01,2013-04-24 09:15:00,
2013-04-24 05:16:00,37.1,34.7,30.06,NW,317,2.0,3.0,91,0.00,,,0.00,VWS V14.01,2013-04-24 09:16:00,
2013-04-24 05:17:00,37.3,34.9,30.06,NW,317,2.0,3.0,91,0.00,,,0.00,VWS V14.01,2013-04-24 09:17:00,
2013-04-24 05:19:00,37.4,35.0,30.06,NW,317,2.0,3.0,91,0.00,,,0.00,VWS V14.01,2013-04-24 09:19:00,
2013-04-24 05:20:00,37.5,35.1,30.06,NW,317,2.0,2.0,91,0.00,,,0.00,VWS V14.01,2013-04-24 09:20:00,
2013-04-24 05:22:00,37.7,35.3,30.06,NW,317,0.0,2.0,91,0.00,,,0.00,VWS V14.01,2013-04-24 09:22:00,
2013-04-24 05:23:00,37.7,35.3,30.06,NW,317,2.0,2.0,91,0.00,,,0.00,VWS V14.01,2013-04-24 09:23:00,
2013-04-24 05:24:00,37.9,35.5,30.06,NW,317,1.0,3.0,91,0.00,,,0.00,VWS V14.01,2013-04-24 09:24:00,
2013-04-24 05:25:00,37.9,35.5,30.06,NW,317,0.0,0.0,91,0.00,,,0.00,VWS V14.01,2013-04-24 09:25:00,
2013-04-24 05:27:00,37.9,35.5,30.06,NW,317,3.0,3.0,91,0.00,,,0.00,VWS V14.01,2013-04-24 09:27:00,
2013-04-24 05:28:00,38.0,35.6,30.06,NW,317,2.0,3.0,91,0.00,,,0.00,VWS V14.01,2013-04-24 09:28:00,
2013-04-24 05:30:00,38.0,35.6,30.06,NW,317,2.0,3.0,91,0.00,,,0.00,VWS V14.01,2013-04-24 09:30:00,
2013-04-24 05:32:00,38.0,35.6,30.06,NW,317,1.0,3.0,91,0.00,,,0.00,VWS V14.01,2013-04-24 09:32:00,
2013-04-24 05:33:00,38.0,35.6,30.06,NW,317,1.0,3.0,91,0.00,,,0.00,VWS V14.01,2013-04-24 09:33:00,
2013-04-24 05:35:00,37.9,35.5,30.06,NW,317,0.0,3.0,91,0.00,,,0.00,VWS V14.01,2013-04-24 09:35:00,
2013-04-24 05:36:00,37.9,35.5,30.06,NW,317,1.0,1.0,91,0.00,,,0.00,VWS V14.01,2013-04-24 09:36:00,
2013-04-24 05:37:00,37.9,35.5,30.06,NW,317,2.0,3.0,91,0.00,,,0.00,VWS V14.01,2013-04-24 09:37:00,
2013-04-24 05:38:00,37.9,35.5,30.06,NW,317,2.0,3.0,91,0.00,,,0.00,VWS V14.01,2013-04-24 09:38:00,
2013-04-24 05:40:00,37.9,35.5,30.06,NW,317,3.0,3.0,91,0.00,,,0.00,VWS V14.01,2013-04-24 09:40:00,
2013-04-24 05:41:00,37.9,35.5,30.06,NW,317,2.0,4.0,91,0.00,,,0.00,VWS V14.01,2013-04-24 09:41:00,
2013-04-24 05:43:00,37.9,35.5,30.06,NW,317,2.0,4.0,91,0.00,,,0.00,VWS V14.01,2013-04-24 09:43:00,
2013-04-24 05:44:00,37.9,35.5,30.06,NW,317,2.0,4.0,91,0.00,,,0.00,VWS V14.01,2013-04-24 09:44:00,
2013-04-24 05:45:00,37.9,35.5,30.06,NW,317,3.0,4.0,91,0.00,,,0.00,VWS V14.01,2013-04-24 09:45:00,
2013-04-24 05:46:00,38.0,35.6,30.06,NW,317,2.0,3.0,91,0.00,,,0.00,VWS V14.01,2013-04-24 09:46:00,
2013-04-24 05:48:00,38.1,35.7,30.06,NW,317,2.0,3.0,91,0.00,,,0.00,VWS V14.01,2013-04-24 09:48:00,
2013-04-24 05:49:00,38.1,35.7,30.06,NW,317,2.0,3.0,91,0.00,,,0.00,VWS V14.01,2013-04-24 09:49:00,
2013-04-24 05:50:00,38.2,35.8,30.06,NW,317,0.0,1.0,91,0.00,,,0.00,VWS V14.01,2013-04-24 09:50:00,
2013-04-24 05:51:00,38.2,35.8,30.06,NW,317,0.0,2.0,91,0.00,,,0.00,VWS V14.01,2013-04-24 09:51:00,
2013-04-24 05:53:00,38.1,35.7,30.06,NW,317,0.0,2.0,91,0.00,,,0.00,VWS V14.01,2013-04-24 09:53:00,
2013-04-24 05:54:00,38.2,35.8,30.06,NW,317,0.0,2.0,91,0.00,,,0.00,VWS V14.01,2013-04-24 09:54:00,
2013-04-24 05:55:00,38.2,35.8,30.06,NW,317,3.0,4.0,91,0.00,,,0.00,VWS V14.01,2013-04-24 09:55:00,
2013-04-24 05:56:00,38.2,35.8,30.06,NW,317,3.0,4.0,91,0.00,,,0.00,VWS V14.01,2013-04-24 09:56:00,
2013-04-24 05:57:00,38.2,35.8,30.06,NW,317,3.0,4.0,91,0.00,,,0.00,VWS V14.01,2013-04-24 09:57:00,
2013-04-24 05:58:00,38.3,35.9,30.06,NW,317,3.0,4.0,91,0.00,,,0.00,VWS V14.01,2013-04-24 09:58:00,
2013-04-24 05:59:00,38.3,35.9,30.06,NW,317,2.0,4.0,91,0.00,,,0.00,VWS V14.01,2013-04-24 09:59:00,
2013-04-24 06:00:00,38.3,35.9,30.06,NW,317,3.0,4.0,91,0.00,,,0.00,VWS V14.01,2013-04-24 10:00:00,
2013-04-24 06:01:00,38.5,36.1,30.06,NW,317,3.0,4.0,91,0.00,,,0.00,VWS V14.01,2013-04-24 10:01:00,
2013-04-24 06:02:00,38.5,36.4,30.06,NW,317,2.0,4.0,92,0.00,,,0.00,VWS V14.01,2013-04-24 10:02:00,
2013-04-24 06:03:00,38.6,36.2,30.06,NW,317,3.0,4.0,91,0.00,,,0.00,VWS V14.01,2013-04-24 10:03:00,
2013-04-24 06:04:00,38.6,36.2,30.06,NW,317,3.0,4.0,91,0.00,,,0.00,VWS V14.01,2013-04-24 10:04:00,
2013-04-24 06:05:00,38.6,36.2,30.06,NW,317,4.0,4.0,91,0.00,,,0.00,VWS V14.01,2013-04-24 10:05:00,
2013-04-24 06:06:00,38.6,36.2,30.06,NW,317,3.0,5.0,91,0.00,,,0.00,VWS V14.01,2013-04-24 10:06:00,
2013-04-24 06:07:00,38.6,36.2,30.06,NW,317,3.0,5.0,91,0.00,,,0.00,VWS V14.01,2013-04-24 10:07:00,
2013-04-24 06:08:00,38.7,36.3,30.06,NW,325,3.0,6.0,91,0.00,,,0.00,VWS V14.01,2013-04-24 10:08:00,
2013-04-24 06:09:00,38.8,36.4,30.06,NW,325,3.0,6.0,91,0.00,,,0.00,VWS V14.01,2013-04-24 10:09:00,
2013-04-24 06:10:00,38.8,36.4,30.06,NW,325,4.0,4.0,91,0.00,,,0.00,VWS V14.01,2013-04-24 10:10:00,
2013-04-24 06:11:00,38.8,36.4,30.06,NNW,328,5.0,5.0,91,0.00,,,0.00,VWS V14.01,2013-04-24 10:11:00,
2013-04-24 06:12:00,38.9,36.5,30.06,NNE,14,3.0,6.0,91,0.00,,,0.00,VWS V14.01,2013-04-24 10:12:00,
2013-04-24 06:13:00,39.0,36.6,30.06,NNW,327,5.0,6.0,91,0.00,,,0.00,VWS V14.01,2013-04-24 10:13:00,
2013-04-24 06:14:00,39.1,36.7,30.06,NNW,328,3.0,6.0,91,0.00,,,0.00,VWS V14.01,2013-04-24 10:14:00,
2013-04-24 06:15:00,39.2,36.8,30.05,NNW,329,0.0,3.0,91,0.00,,,0.00,VWS V14.01,2013-04-24 10:15:00,
2013-04-24 06:16:00,39.2,36.8,30.05,NNW,329,3.0,3.0,91,0.00,,,0.00,VWS V14.01,2013-04-24 10:16:00,
2013-04-24 06:17:00,39.2,36.8,30.05,NNW,327,4.0,4.0,91,0.00,,,0.00,VWS V14.01,2013-04-24 10:17:00,
2013-04-24 06:19:00,39.3,36.9,30.05,NNW,348,0.0,5.0,91,0.00,,,0.00,VWS V14.01,2013-04-24 10:19:00,
2013-04-24 06:20:00,39.4,37.0,30.05,NNW,348,0.0,5.0,91,0.00,,,0.00,VWS V14.01,2013-04-24 10:20:00,
2013-04-24 06:21:00,39.5,37.1,30.05,NNW,348,1.0,1.0,91,0.00,,,0.00,VWS V14.01,2013-04-24 10:21:00,
2013-04-24 06:22:00,39.4,37.0,30.05,NNW,348,0.0,1.0,91,0.00,,,0.00,VWS V14.01,2013-04-24 10:22:00,
2013-04-24 06:23:00,39.4,37.0,30.05,NNW,348,0.0,3.0,91,0.00,,,0.00,VWS V14.01,2013-04-24 10:23:00,
2013-04-24 06:24:00,39.3,36.9,30.05,NNW,348,0.0,3.0,91,0.00,,,0.00,VWS V14.01,2013-04-24 10:24:00,
2013-04-24 06:25:00,39.2,36.5,30.05,NNW,348,0.0,3.0,90,0.00,,,0.00,VWS V14.01,2013-04-24 10:25:00,
2013-04-24 06:26:00,39.0,36.3,30.05,NNW,348,0.0,0.0,90,0.00,,,0.00,VWS V14.01,2013-04-24 10:26:00,
2013-04-24 06:27:00,38.8,36.1,30.06,NNW,348,2.0,3.0,90,0.00,,,0.00,VWS V14.01,2013-04-24 10:27:00,
2013-04-24 06:28:00,38.8,36.1,30.06,NNW,348,1.0,3.0,90,0.00,,,0.00,VWS V14.01,2013-04-24 10:28:00,
2013-04-24 06:29:00,38.7,36.0,30.05,NNW,348,1.0,3.0,90,0.00,,,0.00,VWS V14.01,2013-04-24 10:29:00,
2013-04-24 06:30:00,38.7,36.0,30.05,NNW,348,3.0,3.0,90,0.00,,,0.00,VWS V14.01,2013-04-24 10:30:00,
2013-04-24 06:31:00,38.6,35.9,30.06,NNW,348,2.0,3.0,90,0.00,,,0.00,VWS V14.01,2013-04-24 10:31:00,
2013-04-24 06:32:00,38.5,35.8,30.05,NNW,348,3.0,3.0,90,0.00,,,0.00,VWS V14.01,2013-04-24 10:32:00,
2013-04-24 06:33:00,38.4,35.7,30.05,NNW,348,1.0,3.0,90,0.00,,,0.00,VWS V14.01,2013-04-24 10:33:00,
2013-04-24 06:34:00,38.4,35.7,30.05,NNW,348,2.0,3.0,90,0.00,,,0.00,VWS V14.01,2013-04-24 10:34:00,
2013-04-24 06:35:00,38.4,35.7,30.05,NNW,348,0.0,3.0,90,0.00,,,0.00,VWS V14.01,2013-04-24 10:35:00,
2013-04-24 06:36:00,38.3,35.6,30.06,NNW,348,1.0,2.0,90,0.00,,,0.00,VWS V14.01,2013-04-24 10:36:00,
2013-04-24 06:37:00,38.2,35.5,30.06,NNW,348,1.0,2.0,90,0.00,,,0.00,VWS V14.01,2013-04-24 10:37:00,
2013-04-24 06:38:00,38.2,35.5,30.06,NNW,348,2.0,3.0,90,0.00,,,0.00,VWS V14.01,2013-04-24 10:38:00,
2013-04-24 06:39:00,38.2,35.5,30.06,NNW,348,1.0,3.0,90,0.00,,,0.00,VWS V14.01,2013-04-24 10:39:00,
2013-04-24 06:40:00,38.2,35.8,30.06,NNW,348,3.0,3.0,91,0.00,,,0.00,VWS V14.01,2013-04-24 10:40:00,
2013-04-24 06:42:00,38.5,36.1,30.06,NNW,334,2.0,4.0,91,0.00,,,0.00,VWS V14.01,2013-04-24 10:42:00,
2013-04-24 06:43:00,38.8,36.7,30.05,NNW,346,4.0,6.0,92,0.00,,,0.00,VWS V14.01,2013-04-24 10:43:00,
2013-04-24 06:44:00,39.1,37.0,30.06,NNW,342,5.0,6.0,92,0.00,,,0.00,VWS V14.01,2013-04-24 10:44:00,
2013-04-24 06:45:00,39.2,37.1,30.06,NNW,342,3.0,6.0,92,0.00,,,0.00,VWS V14.01,2013-04-24 10:45:00,
2013-04-24 06:47:00,39.4,37.3,30.05,NNW,333,0.0,3.0,92,0.00,,,0.00,VWS V14.01,2013-04-24 10:47:00,
2013-04-24 06:48:00,39.3,36.9,30.05,NW,321,0.0,4.0,91,0.00,,,0.00,VWS V14.01,2013-04-24 10:48:00,
2013-04-24 06:49:00,39.3,36.9,30.05,NW,321,2.0,4.0,91,0.00,,,0.00,VWS V14.01,2013-04-24 10:49:00,
2013-04-24 06:50:00,39.3,36.9,30.05,NW,321,2.0,4.0,91,0.00,,,0.00,VWS V14.01,2013-04-24 10:50:00,
2013-04-24 06:52:00,39.3,36.9,30.05,NW,321,3.0,4.0,91,0.00,,,0.00,VWS V14.01,2013-04-24 10:52:00,
2013-04-24 06:53:00,39.3,36.9,30.06,NW,321,1.0,4.0,91,0.00,,,0.00,VWS V14.01,2013-04-24 10:53:00,
2013-04-24 06:54:00,39.3,36.9,30.05,NW,321,2.0,4.0,91,0.00,,,0.00,VWS V14.01,2013-04-24 10:54:00,
2013-04-24 06:55:00,39.3,36.9,30.05,NW,321,3.0,4.0,91,0.00,,,0.00,VWS V14.01,2013-04-24 10:55:00,
2013-04-24 06:57:00,39.3,36.9,30.06,NW,321,3.0,4.0,91,0.00,,,0.00,VWS V14.01,2013-04-24 10:57:00,
2013-04-24 06:58:00,39.4,37.0,30.06,NW,321,1.0,4.0,91,0.00,,,0.00,VWS V14.01,2013-04-24 10:58:00,
2013-04-24 07:00:00,39.4,37.0,30.05,NW,320,3.0,4.0,91,0.00,,,0.00,VWS V14.01,2013-04-24 11:00:00,
2013-04-24 07:02:00,39.3,36.9,30.05,NW,321,2.0,5.0,91,0.00,,,0.00,VWS V14.01,2013-04-24 11:02:00,
2013-04-24 07:03:00,39.3,36.6,30.05,NW,321,2.0,5.0,90,0.00,,,0.00,VWS V14.01,2013-04-24 11:03:00,
2013-04-24 07:04:00,39.2,36.5,30.06,NW,321,1.0,5.0,90,0.00,,,0.00,VWS V14.01,2013-04-24 11:04:00,
2013-04-24 07:05:00,39.1,36.4,30.06,NW,321,4.0,4.0,90,0.00,,,0.00,VWS V14.01,2013-04-24 11:05:00,
2013-04-24 07:07:00,39.1,36.4,30.06,NW,321,3.0,4.0,90,0.00,,,0.00,VWS V14.01,2013-04-24 11:07:00,
2013-04-24 07:08:00,39.1,36.4,30.06,NW,321,3.0,4.0,90,0.00,,,0.00,VWS V14.01,2013-04-24 11:08:00,
2013-04-24 07:09:00,39.1,36.4,30.06,NW,321,0.0,4.0,90,0.00,,,0.00,VWS V14.01,2013-04-24 11:09:00,
2013-04-24 07:10:00,39.1,36.4,30.06,NW,318,3.0,4.0,90,0.00,,,0.00,VWS V14.01,2013-04-24 11:10:00,
2013-04-24 07:12:00,39.1,36.7,30.06,NW,316,3.0,4.0,91,0.00,,,0.00,VWS V14.01,2013-04-24 11:12:00,
2013-04-24 07:13:00,39.2,36.8,30.06,NW,315,0.0,4.0,91,0.00,,,0.00,VWS V14.01,2013-04-24 11:13:00,
2013-04-24 07:14:00,39.2,36.8,30.06,NW,316,2.0,4.0,91,0.00,,,0.00,VWS V14.01,2013-04-24 11:14:00,
2013-04-24 07:15:00,39.2,36.8,30.06,NW,316,3.0,4.0,91,0.00,,,0.00,VWS V14.01,2013-04-24 11:15:00,
2013-04-24 07:17:00,39.3,36.9,30.06,NW,316,2.0,3.0,91,0.00,,,0.00,VWS V14.01,2013-04-24 11:17:00,
2013-04-24 07:18:00,39.3,36.9,30.06,NW,316,1.0,3.0,91,0.00,,,0.00,VWS V14.01,2013-04-24 11:18:00,
2013-04-24 07:19:00,39.3,36.9,30.06,NNE,16,3.0,3.0,91,0.00,,,0.00,VWS V14.01,2013-04-24 11:19:00,
2013-04-24 07:20:00,39.4,37.0,30.06,NNE,19,2.0,2.0,91,0.00,,,0.00,VWS V14.01,2013-04-24 11:20:00,
2013-04-24 07:22:00,39.5,37.1,30.06,SSE,167,2.0,3.0,91,0.00,,,0.00,VWS V14.01,2013-04-24 11:22:00,
2013-04-24 07:23:00,39.5,37.1,30.05,SSE,164,1.0,3.0,91,0.00,,,0.00,VWS V14.01,2013-04-24 11:23:00,
2013-04-24 07:24:00,39.5,37.1,30.05,SSE,164,0.0,3.0,91,0.00,,,0.00,VWS V14.01,2013-04-24 11:24:00,
2013-04-24 07:25:00,39.5,37.1,30.05,SSE,165,0.0,0.0,91,0.00,,,0.00,VWS V14.01,2013-04-24 11:25:00,
2013-04-24 07:26:00,39.5,37.1,30.05,SSE,164,0.0,0.0,91,0.00,,,0.00,VWS V14.01,2013-04-24 11:26:00,
2013-04-24 07:28:00,39.5,36.8,30.05,SSE,164,0.0,0.0,90,0.00,,,0.00,VWS V14.01,2013-04-24 11:28:00,
2013-04-24 07:29:00,39.5,36.8,30.05,SSE,166,1.0,2.0,90,0.00,,,0.00,VWS V14.01,2013-04-24 11:29:00,
2013-04-24 07:30:00,39.5,37.1,30.05,SSE,166,0.0,0.0,91,0.00,,,0.00,VWS V14.01,2013-04-24 11:30:00,
2013-04-24 07:31:00,39.5,37.1,30.05,SSE,166,0.0,0.0,91,0.00,,,0.00,VWS V14.01,2013-04-24 11:31:00,
2013-04-24 07:33:00,39.6,37.2,30.05,SSE,166,0.0,1.0,91,0.00,,,0.00,VWS V14.01,2013-04-24 11:33:00,
2013-04-24 07:34:00,39.7,37.3,30.05,NW,307,0.0,3.0,91,0.00,,,0.00,VWS V14.01,2013-04-24 11:34:00,
2013-04-24 07:35:00,39.8,37.4,30.05,NW,311,2.0,3.0,91,0.00,,,0.00,VWS V14.01,2013-04-24 11:35:00,
2013-04-24 07:36:00,39.8,37.4,30.05,NW,311,1.0,3.0,91,0.00,,,0.00,VWS V14.01,2013-04-24 11:36:00,
2013-04-24 07:38:00,40.1,37.7,30.05,NW,311,0.0,3.0,91,0.00,,,0.00,VWS V14.01,2013-04-24 11:38:00,
2013-04-24 07:39:00,40.1,37.7,30.05,NW,311,0.0,3.0,91,0.00,,,0.00,VWS V14.01,2013-04-24 11:39:00,
2013-04-24 07:40:00,40.2,37.8,30.05,NW,311,2.0,2.0,91,0.00,,,0.00,VWS V14.01,2013-04-24 11:40:00,
2013-04-24 07:41:00,40.2,37.8,30.05,NW,311,0.0,2.0,91,0.00,,,0.00,VWS V14.01,2013-04-24 11:41:00,
2013-04-24 07:43:00,40.5,38.1,30.05,NNW,346,0.0,3.0,91,0.00,,,0.00,VWS V14.01,2013-04-24 11:43:00,
2013-04-24 07:44:00,40.7,38.3,30.05,NNW,346,0.0,3.0,91,0.00,,,0.00,VWS V14.01,2013-04-24 11:44:00,
2013-04-24 07:45:00,41.0,38.6,30.04,NNW,346,0.0,0.0,91,0.00,,,0.00,VWS V14.01,2013-04-24 11:45:00,
2013-04-24 07:46:00,41.0,38.6,30.04,NNW,346,0.0,0.0,91,0.00,,,0.00,VWS V14.01,2013-04-24 11:46:00,
2013-04-24 07:48:00,41.4,39.0,30.04,NNW,346,0.0,1.0,91,0.00,,,0.00,VWS V14.01,2013-04-24 11:48:00,
2013-04-24 07:49:00,41.7,39.3,30.04,NNW,346,0.0,1.0,91,0.00,,,0.00,VWS V14.01,2013-04-24 11:49:00,
2013-04-24 07:50:00,42.0,39.6,30.04,NNW,346,0.0,2.0,91,0.00,,,0.00,VWS V14.01,2013-04-24 11:50:00,
2013-04-24 07:51:00,42.1,39.7,30.04,NNW,346,0.0,2.0,91,0.00,,,0.00,VWS V14.01,2013-04-24 11:51:00,
2013-04-24 07:53:00,42.6,39.9,30.04,NNW,346,0.0,2.0,90,0.00,,,0.00,VWS V14.01,2013-04-24 11:53:00,
2013-04-24 07:54:00,42.9,40.2,30.04,NNW,346,0.0,2.0,90,0.00,,,0.00,VWS V14.01,2013-04-24 11:54:00,
2013-04-24 07:55:00,42.9,40.2,30.04,NNW,346,1.0,1.0,90,0.00,,,0.00,VWS V14.01,2013-04-24 11:55:00,
2013-04-24 07:56:00,43.2,40.2,30.04,NNW,346,0.0,1.0,89,0.00,,,0.00,VWS V14.01,2013-04-24 11:56:00,
2013-04-24 07:58:00,43.5,40.5,30.04,NNW,346,0.0,1.0,89,0.00,,,0.00,VWS V14.01,2013-04-24 11:58:00,
2013-04-24 07:59:00,43.8,40.8,30.04,NNW,346,0.0,2.0,89,0.00,,,0.00,VWS V14.01,2013-04-24 11:59:00,
2013-04-24 08:00:00,43.8,40.8,30.04,NNW,346,0.0,1.0,89,0.00,,,0.00,VWS V14.01,2013-04-24 12:00:00,
2013-04-24 08:01:00,44.0,40.7,30.04,NNW,346,0.0,1.0,88,0.00,,,0.00,VWS V14.01,2013-04-24 12:01:00,
2013-04-24 08:03:00,44.3,40.7,30.04,NNW,346,0.0,4.0,87,0.00,,,0.00,VWS V14.01,2013-04-24 12:03:00,
2013-04-24 08:05:00,44.5,40.9,30.04,NNW,346,0.0,4.0,87,0.00,,,0.00,VWS V14.01,2013-04-24 12:05:00,
2013-04-24 08:06:00,44.7,40.8,30.04,NNW,346,0.0,1.0,86,0.00,,,0.00,VWS V14.01,2013-04-24 12:06:00,
2013-04-24 08:08:00,45.0,41.1,30.04,NNW,346,3.0,4.0,86,0.00,,,0.00,VWS V14.01,2013-04-24 12:08:00,
2013-04-24 08:10:00,45.2,41.3,30.04,NNW,347,0.0,4.0,86,0.00,,,0.00,VWS V14.01,2013-04-24 12:10:00,
2013-04-24 08:11:00,45.4,41.2,30.04,NNW,347,2.0,2.0,85,0.00,,,0.00,VWS V14.01,2013-04-24 12:11:00,
2013-04-24 08:13:00,45.8,41.2,30.03,NE,36,3.0,4.0,84,0.00,,,0.00,VWS V14.01,2013-04-24 12:13:00,
2013-04-24 08:15:00,45.9,41.3,30.04,NE,36,1.0,1.0,84,0.00,,,0.00,VWS V14.01,2013-04-24 12:15:00,
2013-04-24 08:16:00,46.1,41.2,30.03,NNE,12,1.0,3.0,83,0.00,,,0.00,VWS V14.01,2013-04-24 12:16:00,
2013-04-24 08:17:00,46.3,41.4,30.04,NE,51,2.0,3.0,83,0.00,,,0.00,VWS V14.01,2013-04-24 12:17:00,
2013-04-24 08:18:00,46.4,41.2,30.04,NE,51,0.0,3.0,82,0.00,,,0.00,VWS V14.01,2013-04-24 12:18:00,
2013-04-24 08:20:00,46.5,41.3,30.04,NE,51,1.0,2.0,82,0.00,,,0.00,VWS V14.01,2013-04-24 12:20:00,
2013-04-24 08:21:00,46.6,41.1,30.04,NE,52,2.0,4.0,81,0.00,,,0.00,VWS V14.01,2013-04-24 12:21:00,
2013-04-24 08:23:00,46.7,41.5,30.04,NE,38,2.0,4.0,82,0.00,,,0.00,VWS V14.01,2013-04-24 12:23:00,
2013-04-24 08:25:00,47.0,41.5,30.04,ESE,103,1.0,3.0,81,0.00,,,0.00,VWS V14.01,2013-04-24 12:25:00,
2013-04-24 08:26:00,47.0,41.2,30.04,NNW,329,3.0,4.0,80,0.00,,,0.00,VWS V14.01,2013-04-24 12:26:00,
2013-04-24 08:28:00,47.1,41.3,30.04,NNW,336,0.0,4.0,80,0.00,,,0.00,VWS V14.01,2013-04-24 12:28:00,
2013-04-24 08:29:00,47.2,41.4,30.04,NE,45,4.0,4.0,80,0.00,,,0.00,VWS V14.01,2013-04-24 12:29:00,
2013-04-24 08:30:00,47.4,41.5,30.04,North,5,0.0,1.0,80,0.00,,,0.00,VWS V14.01,2013-04-24 12:30:00,
2013-04-24 08:31:00,47.5,41.7,30.04,East,96,3.0,4.0,80,0.00,,,0.00,VWS V14.01,2013-04-24 12:31:00,
2013-04-24 08:32:00,47.6,41.4,30.04,NE,54,2.0,4.0,79,0.00,,,0.00,VWS V14.01,2013-04-24 12:32:00,
2013-04-24 08:33:00,47.7,41.2,30.03,ENE,60,3.0,4.0,78,0.00,,,0.00,VWS V14.01,2013-04-24 12:33:00,
2013-04-24 08:34:00,47.7,41.2,30.03,East,92,6.0,6.0,78,0.00,,,0.00,VWS V14.01,2013-04-24 12:34:00,
2013-04-24 08:35:00,47.7,41.2,30.03,East,87,3.0,7.0,78,0.00,,,0.00,VWS V14.01,2013-04-24 12:35:00,
2013-04-24 08:36:00,47.6,41.1,30.03,East,87,1.0,4.0,78,0.00,,,0.00,VWS V14.01,2013-04-24 12:36:00,
2013-04-24 08:37:00,47.7,41.5,30.03,East,88,1.0,4.0,79,0.00,,,0.00,VWS V14.01,2013-04-24 12:37:00,
2013-04-24 08:38:00,47.8,41.6,30.03,NE,46,1.0,4.0,79,0.00,,,0.00,VWS V14.01,2013-04-24 12:38:00,
2013-04-24 08:39:00,47.8,41.6,30.03,NE,56,3.0,4.0,79,0.00,,,0.00,VWS V14.01,2013-04-24 12:39:00,
2013-04-24 08:40:00,47.8,41.3,30.03,ENE,74,1.0,5.0,78,0.00,,,0.00,VWS V14.01,2013-04-24 12:40:00,
2013-04-24 08:41:00,47.9,41.4,30.03,ENE,74,3.0,3.0,78,0.00,,,0.00,VWS V14.01,2013-04-24 12:41:00,
2013-04-24 08:42:00,47.9,41.4,30.03,ENE,74,2.0,3.0,78,0.00,,,0.00,VWS V14.01,2013-04-24 12:42:00,
2013-04-24 08:43:00,47.9,41.4,30.03,North,360,4.0,6.0,78,0.00,,,0.00,VWS V14.01,2013-04-24 12:43:00,
2013-04-24 08:44:00,48.0,41.5,30.03,North,9,3.0,6.0,78,0.00,,,0.00,VWS V14.01,2013-04-24 12:44:00,
2013-04-24 08:45:00,48.0,41.5,30.03,NNW,347,0.0,6.0,78,0.00,,,0.00,VWS V14.01,2013-04-24 12:45:00,
2013-04-24 08:46:00,48.1,41.2,30.02,East,87,2.0,4.0,77,0.00,,,0.00,VWS V14.01,2013-04-24 12:46:00,
2013-04-24 08:47:00,48.1,41.2,30.03,East,86,2.0,4.0,77,0.00,,,0.00,VWS V14.01,2013-04-24 12:47:00,
2013-04-24 08:48:00,48.2,41.3,30.02,East,101,1.0,4.0,77,0.00,,,0.00,VWS V14.01,2013-04-24 12:48:00,
2013-04-24 08:49:00,48.2,41.3,30.02,East,100,1.0,4.0,77,0.00,,,0.00,VWS V14.01,2013-04-24 12:49:00,
2013-04-24 08:50:00,48.2,41.3,30.02,ESE,111,4.0,4.0,77,0.00,,,0.00,VWS V14.01,2013-04-24 12:50:00,
2013-04-24 08:51:00,48.3,41.4,30.02,East,95,2.0,5.0,77,0.00,,,0.00,VWS V14.01,2013-04-24 12:51:00,
2013-04-24 08:52:00,48.3,41.4,30.03,North,360,1.0,5.0,77,0.00,,,0.00,VWS V14.01,2013-04-24 12:52:00,
2013-04-24 08:53:00,48.5,41.6,30.02,East,101,4.0,5.0,77,0.00,,,0.00,VWS V14.01,2013-04-24 12:53:00,
2013-04-24 08:54:00,48.5,41.6,30.02,SE,136,1.0,5.0,77,0.00,,,0.00,VWS V14.01,2013-04-24 12:54:00,
2013-04-24 08:55:00,48.4,41.2,30.02,ESE,120,2.0,5.0,76,0.00,,,0.00,VWS V14.01,2013-04-24 12:55:00,
2013-04-24 08:56:00,48.6,41.7,30.02,ESE,120,1.0,2.0,77,0.00,,,0.00,VWS V14.01,2013-04-24 12:56:00,
2013-04-24 08:57:00,48.6,41.7,30.02,ESE,120,0.0,2.0,77,0.00,,,0.00,VWS V14.01,2013-04-24 12:57:00,
2013-04-24 08:58:00,48.8,41.9,30.02,ESE,120,1.0,2.0,77,0.00,,,0.00,VWS V14.01,2013-04-24 12:58:00,
2013-04-24 08:59:00,48.9,42.0,30.02,East,92,5.0,6.0,77,0.00,,,0.00,VWS V14.01,2013-04-24 12:59:00,
2013-04-24 09:00:00,48.9,41.7,30.02,ESE,108,5.0,6.0,76,0.00,,,0.00,VWS V14.01,2013-04-24 13:00:00,
2013-04-24 09:01:00,48.9,41.7,30.02,East,94,7.0,7.0,76,0.00,,,0.00,VWS V14.01,2013-04-24 13:01:00,
2013-04-24 09:02:00,48.8,41.6,30.02,East,93,5.0,7.0,76,0.00,,,0.00,VWS V14.01,2013-04-24 13:02:00,
2013-04-24 09:03:00,48.7,41.1,30.02,East,93,4.0,7.0,75,0.00,,,0.00,VWS V14.01,2013-04-24 13:03:00,
2013-04-24 09:04:00,48.7,41.1,30.02,ESE,105,4.0,7.0,75,0.00,,,0.00,VWS V14.01,2013-04-24 13:04:00,
2013-04-24 09:05:00,48.7,41.5,30.02,ESE,104,4.0,7.0,76,0.00,,,0.00,VWS V14.01,2013-04-24 13:05:00,
2013-04-24 09:06:00,48.7,41.5,30.01,East,95,6.0,7.0,76,0.00,,,0.00,VWS V14.01,2013-04-24 13:06:00,
2013-04-24 09:07:00,48.6,41.4,30.01,East,79,4.0,7.0,76,0.00,,,0.00,VWS V14.01,2013-04-24 13:07:00,
2013-04-24 09:08:00,48.6,41.0,30.01,East,93,9.0,9.0,75,0.00,,,0.00,VWS V14.01,2013-04-24 13:08:00,
2013-04-24 09:09:00,48.5,41.0,30.01,East,90,2.0,9.0,75,0.00,,,0.00,VWS V14.01,2013-04-24 13:09:00,
2013-04-24 09:10:00,48.6,41.0,30.01,East,90,5.0,9.0,75,0.00,,,0.00,VWS V14.01,2013-04-24 13:10:00,
2013-04-24 09:12:00,48.6,41.4,30.01,East,84,2.0,7.0,76,0.00,,,0.00,VWS V14.01,2013-04-24 13:12:00,
2013-04-24 09:13:00,48.7,41.5,30.01,SE,133,4.0,7.0,76,0.00,,,0.00,VWS V14.01,2013-04-24 13:13:00,
2013-04-24 09:14:00,48.7,41.1,30.01,ESE,105,3.0,7.0,75,0.00,,,0.00,VWS V14.01,2013-04-24 13:14:00,
2013-04-24 09:15:00,48.8,41.2,30.01,ESE,105,2.0,7.0,75,0.00,,,0.00,VWS V14.01,2013-04-24 13:15:00,
2013-04-24 09:17:00,49.2,42.0,30.00,ESE,102,4.0,5.0,76,0.00,,,0.00,VWS V14.01,2013-04-24 13:17:00,
2013-04-24 09:18:00,49.2,42.0,30.00,East,101,3.0,5.0,76,0.00,,,0.00,VWS V14.01,2013-04-24 13:18:00,
2013-04-24 09:19:00,49.4,41.8,30.00,East,101,2.0,5.0,75,0.00,,,0.00,VWS V14.01,2013-04-24 13:19:00,
2013-04-24 09:20:00,49.4,41.8,30.00,East,101,0.0,5.0,75,0.00,,,0.00,VWS V14.01,2013-04-24 13:20:00,
2013-04-24 09:22:00,50.0,42.0,30.00,ESE,106,4.0,6.0,74,0.00,,,0.00,VWS V14.01,2013-04-24 13:22:00,
2013-04-24 09:23:00,50.0,42.0,30.00,ENE,65,4.0,6.0,74,0.00,,,0.00,VWS V14.01,2013-04-24 13:23:00,
2013-04-24 09:25:00,50.1,41.8,30.00,East,86,1.0,8.0,73,0.00,,,0.00,VWS V14.01,2013-04-24 13:25:00,
2013-04-24 09:28:00,50.2,41.9,29.99,East,96,5.0,9.0,73,0.00,,,0.00,VWS V14.01,2013-04-24 13:28:00,
2013-04-24 09:30:00,50.1,41.8,29.99,East,92,0.0,9.0,73,0.00,,,0.00,VWS V14.01,2013-04-24 13:30:00,
2013-04-24 09:33:00,50.3,41.6,29.99,East,87,3.0,9.0,72,0.00,,,0.00,VWS V14.01,2013-04-24 13:33:00,
2013-04-24 09:34:00,50.3,41.6,29.99,East,92,4.0,9.0,72,0.00,,,0.00,VWS V14.01,2013-04-24 13:34:00,
2013-04-24 09:35:00,50.3,41.6,29.99,ENE,75,2.0,9.0,72,0.00,,,0.00,VWS V14.01,2013-04-24 13:35:00,
2013-04-24 09:38:00,50.5,42.2,29.98,East,93,5.0,7.0,73,0.00,,,0.00,VWS V14.01,2013-04-24 13:38:00,
2013-04-24 09:39:00,50.6,42.3,29.98,East,92,3.0,7.0,73,0.00,,,0.00,VWS V14.01,2013-04-24 13:39:00,
2013-04-24 09:40:00,50.7,42.0,29.98,ESE,107,5.0,7.0,72,0.00,,,0.00,VWS V14.01,2013-04-24 13:40:00,
2013-04-24 09:43:00,51.0,42.3,29.98,ESE,102,3.0,9.0,72,0.00,,,0.00,VWS V14.01,2013-04-24 13:43:00,
2013-04-24 09:44:00,51.1,42.4,29.98,East,89,4.0,9.0,72,0.00,,,0.00,VWS V14.01,2013-04-24 13:44:00,
2013-04-24 09:45:00,51.2,42.5,29.98,East,96,4.0,9.0,72,0.00,,,0.00,VWS V14.01,2013-04-24 13:45:00,
2013-04-24 09:48:00,51.6,42.5,29.98,East,96,4.0,6.0,71,0.00,,,0.00,VWS V14.01,2013-04-24 13:48:00,
2013-04-24 09:49:00,51.8,42.7,29.98,NNE,13,1.0,6.0,71,0.00,,,0.00,VWS V14.01,2013-04-24 13:49:00,
2013-04-24 09:50:00,51.9,42.8,29.98,NNE,13,2.0,6.0,71,0.00,,,0.00,VWS V14.01,2013-04-24 13:50:00,
2013-04-24 09:53:00,52.6,43.1,29.97,ESE,105,3.0,6.0,70,0.00,,,0.00,VWS V14.01,2013-04-24 13:53:00,
2013-04-24 09:54:00,52.6,43.1,29.97,ESE,105,4.0,6.0,70,0.00,,,0.00,VWS V14.01,2013-04-24 13:54:00,
2013-04-24 09:55:00,52.8,42.9,29.97,ESE,114,3.0,3.0,69,0.00,,,0.00,VWS V14.01,2013-04-24 13:55:00,
2013-04-24 09:58:00,53.2,42.9,29.97,East,101,5.0,7.0,68,0.00,,,0.00,VWS V14.01,2013-04-24 13:58:00,
2013-04-24 09:59:00,53.2,42.9,29.97,ESE,105,6.0,7.0,68,0.00,,,0.00,VWS V14.01,2013-04-24 13:59:00,
2013-04-24 10:00:00,53.2,42.9,29.97,East,94,8.0,9.0,68,0.00,,,0.00,VWS V14.01,2013-04-24 14:00:00,
2013-04-24 10:01:00,53.1,42.8,29.97,East,97,5.0,9.0,68,0.00,,,0.00,VWS V14.01,2013-04-24 14:01:00,
2013-04-24 10:04:00,53.1,43.2,29.97,East,97,4.0,9.0,69,0.00,,,0.00,VWS V14.01,2013-04-24 14:04:00,
2013-04-24 10:05:00,53.3,43.4,29.97,East,97,0.0,0.0,69,0.00,,,0.00,VWS V14.01,2013-04-24 14:05:00,
2013-04-24 10:06:00,53.5,43.6,29.97,ENE,76,4.0,4.0,69,0.00,,,0.00,VWS V14.01,2013-04-24 14:06:00,
2013-04-24 10:09:00,54.0,43.3,29.97,East,81,5.0,6.0,67,0.00,,,0.00,VWS V14.01,2013-04-24 14:09:00,
2013-04-24 10:10:00,54.1,43.4,29.97,East,93,2.0,8.0,67,0.00,,,0.00,VWS V14.01,2013-04-24 14:10:00,
2013-04-24 10:11:00,54.1,43.4,29.97,ESE,103,3.0,8.0,67,0.00,,,0.00,VWS V14.01,2013-04-24 14:11:00,
2013-04-24 10:14:00,54.4,43.3,29.97,East,92,3.0,8.0,66,0.00,,,0.00,VWS V14.01,2013-04-24 14:14:00,
2013-04-24 10:15:00,54.4,43.7,29.97,East,92,7.0,9.0,67,0.00,,,0.00,VWS V14.01,2013-04-24 14:15:00,
2013-04-24 10:16:00,54.4,43.3,29.97,East,94,4.0,9.0,66,0.00,,,0.00,VWS V14.01,2013-04-24 14:16:00,
2013-04-24 10:19:00,54.6,43.9,29.97,SSE,153,3.0,9.0,67,0.00,,,0.00,VWS V14.01,2013-04-24 14:19:00,
2013-04-24 10:20:00,54.9,44.2,29.97,East,94,2.0,4.0,67,0.00,,,0.00,VWS V14.01,2013-04-24 14:20:00,
2013-04-24 10:21:00,55.0,43.9,29.97,NE,42,4.0,5.0,66,0.00,,,0.00,VWS V14.01,2013-04-24 14:21:00,
2013-04-24 10:24:00,55.4,44.2,29.97,NNW,342,0.0,5.0,66,0.00,,,0.00,VWS V14.01,2013-04-24 14:24:00,
2013-04-24 10:25:00,55.6,44.0,29.97,East,96,6.0,10.0,65,0.00,,,0.00,VWS V14.01,2013-04-24 14:25:00,
2013-04-24 10:27:00,55.5,43.9,29.97,ESE,114,5.0,11.0,65,0.00,,,0.00,VWS V14.01,2013-04-24 14:27:00,
2013-04-24 10:29:00,55.4,44.2,29.97,ESE,107,3.0,11.0,66,0.00,,,0.00,VWS V14.01,2013-04-24 14:29:00,
2013-04-24 10:30:00,55.4,44.2,29.97,East,96,5.0,11.0,66,0.00,,,0.00,VWS V14.01,2013-04-24 14:30:00,
2013-04-24 10:32:00,55.4,43.8,29.97,ESE,117,3.0,9.0,65,0.00,,,0.00,VWS V14.01,2013-04-24 14:32:00,
2013-04-24 10:34:00,55.7,44.5,29.97,ESE,111,2.0,9.0,66,0.00,,,0.00,VWS V14.01,2013-04-24 14:34:00,
2013-04-24 10:35:00,55.9,45.1,29.97,East,86,2.0,2.0,67,0.00,,,0.00,VWS V14.01,2013-04-24 14:35:00,
2013-04-24 10:37:00,56.2,44.6,29.96,East,93,1.0,6.0,65,0.00,,,0.00,VWS V14.01,2013-04-24 14:37:00,
2013-04-24 10:39:00,56.4,44.8,29.96,ESE,114,5.0,6.0,65,0.00,,,0.00,VWS V14.01,2013-04-24 14:39:00,
2013-04-24 10:40:00,56.4,44.4,29.96,East,93,5.0,6.0,64,0.00,,,0.00,VWS V14.01,2013-04-24 14:40:00,
2013-04-24 10:42:00,56.3,44.3,29.97,East,88,7.0,9.0,64,0.00,,,0.00,VWS V14.01,2013-04-24 14:42:00,
2013-04-24 10:44:00,56.0,44.4,29.97,SSE,157,2.0,9.0,65,0.00,,,0.00,VWS V14.01,2013-04-24 14:44:00,
2013-04-24 10:45:00,56.0,44.0,29.97,SE,133,0.0,1.0,64,0.00,,,0.00,VWS V14.01,2013-04-24 14:45:00,
2013-04-24 10:47:00,56.0,44.0,29.96,East,91,5.0,6.0,64,0.00,,,0.00,VWS V14.01,2013-04-24 14:47:00,
2013-04-24 10:49:00,56.2,44.2,29.96,East,91,6.0,14.0,64,0.00,,,0.00,VWS V14.01,2013-04-24 14:49:00,
2013-04-24 10:50:00,56.2,43.8,29.96,East,92,9.0,9.0,63,0.00,,,0.00,VWS V14.01,2013-04-24 14:50:00,
2013-04-24 10:52:00,56.4,44.4,29.96,East,91,1.0,9.0,64,0.00,,,0.00,VWS V14.01,2013-04-24 14:52:00,
2013-04-24 10:54:00,56.6,45.0,29.96,NE,45,2.0,9.0,65,0.00,,,0.00,VWS V14.01,2013-04-24 14:54:00,
2013-04-24 10:55:00,56.8,45.2,29.96,NNW,340,5.0,5.0,65,0.00,,,0.00,VWS V14.01,2013-04-24 14:55:00,
2013-04-24 10:56:00,56.9,44.9,29.96,ESE,112,3.0,6.0,64,0.00,,,0.00,VWS V14.01,2013-04-24 14:56:00,
2013-04-24 10:57:00,57.1,44.6,29.96,NE,53,0.0,6.0,63,0.00,,,0.00,VWS V14.01,2013-04-24 14:57:00,
2013-04-24 10:59:00,57.4,44.5,29.96,East,81,5.0,8.0,62,0.00,,,0.00,VWS V14.01,2013-04-24 14:59:00,
2013-04-24 11:00:00,57.4,44.5,29.96,East,80,4.0,4.0,62,0.00,,,0.00,VWS V14.01,2013-04-24 15:00:00,
2013-04-24 11:01:00,57.5,44.6,29.96,ESE,121,2.0,6.0,62,0.00,,,0.00,VWS V14.01,2013-04-24 15:01:00,
2013-04-24 11:02:00,57.7,45.2,29.95,NNW,348,0.0,6.0,63,0.00,,,0.00,VWS V14.01,2013-04-24 15:02:00,
2013-04-24 11:05:00,58.1,45.6,29.95,NW,323,4.0,6.0,63,0.00,,,0.00,VWS V14.01,2013-04-24 15:05:00,
2013-04-24 11:09:00,59.0,45.6,29.94,NNW,336,1.0,4.0,61,0.00,,,0.00,VWS V14.01,2013-04-24 15:09:00,
2013-04-24 11:10:00,59.0,45.6,29.94,North,355,3.0,4.0,61,0.00,,,0.00,VWS V14.01,2013-04-24 15:10:00,
2013-04-24 11:14:00,59.0,45.2,29.94,NW,325,2.0,9.0,60,0.00,,,0.00,VWS V14.01,2013-04-24 15:14:00,
2013-04-24 11:15:00,59.0,44.7,29.93,ESE,107,4.0,6.0,59,0.00,,,0.00,VWS V14.01,2013-04-24 15:15:00,
2013-04-24 11:16:00,59.0,45.2,29.93,SE,130,2.0,6.0,60,0.00,,,0.00,VWS V14.01,2013-04-24 15:16:00,
2013-04-24 11:19:00,59.0,44.7,29.93,ENE,74,1.0,6.0,59,0.00,,,0.00,VWS V14.01,2013-04-24 15:19:00,
2013-04-24 11:20:00,59.0,44.7,29.93,ENE,74,0.0,6.0,59,0.00,,,0.00,VWS V14.01,2013-04-24 15:20:00,
2013-04-24 11:21:00,59.0,45.6,29.93,ENE,69,4.0,4.0,61,0.00,,,0.00,VWS V14.01,2013-04-24 15:21:00,
2013-04-24 11:24:00,59.4,45.1,29.93,ESE,108,5.0,9.0,59,0.00,,,0.00,VWS V14.01,2013-04-24 15:24:00,
2013-04-24 11:25:00,59.4,45.1,29.93,ESE,123,7.0,7.0,59,0.00,,,0.00,VWS V14.01,2013-04-24 15:25:00,
2013-04-24 11:26:00,59.3,44.1,29.93,East,95,11.0,12.0,57,0.00,,,0.00,VWS V14.01,2013-04-24 15:26:00,
2013-04-24 11:30:00,59.1,44.8,29.93,NNE,28,4.0,6.0,59,0.00,,,0.00,VWS V14.01,2013-04-24 15:30:00,
2013-04-24 11:31:00,59.3,44.5,29.93,East,94,9.0,11.0,58,0.00,,,0.00,VWS V14.01,2013-04-24 15:31:00,
2013-04-24 11:35:00,59.4,44.6,29.93,ESE,117,6.0,6.0,58,0.00,,,0.00,VWS V14.01,2013-04-24 15:35:00,
2013-04-24 11:37:00,59.7,44.9,29.92,East,90,10.0,10.0,58,0.00,,,0.00,VWS V14.01,2013-04-24 15:37:00,
2013-04-24 11:40:00,59.9,44.7,29.92,East,90,5.0,5.0,57,0.00,,,0.00,VWS V14.01,2013-04-24 15:40:00,
2013-04-24 11:41:00,60.1,45.3,29.92,East,101,6.0,6.0,58,0.00,,,0.00,VWS V14.01,2013-04-24 15:41:00,
2013-04-24 11:42:00,60.1,44.4,29.92,East,88,5.0,11.0,56,0.00,,,0.00,VWS V14.01,2013-04-24 15:42:00,
2013-04-24 11:45:00,60.3,45.0,29.92,East,87,5.0,5.0,57,0.00,,,0.00,VWS V14.01,2013-04-24 15:45:00,
2013-04-24 11:46:00,60.4,45.1,29.92,East,95,4.0,6.0,57,0.00,,,0.00,VWS V14.01,2013-04-24 15:46:00,
2013-04-24 11:47:00,60.6,45.3,29.92,East,99,1.0,6.0,57,0.00,,,0.00,VWS V14.01,2013-04-24 15:47:00,
2013-04-24 11:50:00,61.1,45.8,29.91,NE,56,1.0,1.0,57,0.00,,,0.00,VWS V14.01,2013-04-24 15:50:00,
2013-04-24 11:51:00,61.1,45.3,29.91,NW,313,3.0,5.0,56,0.00,,,0.00,VWS V14.01,2013-04-24 15:51:00,
2013-04-24 11:52:00,61.3,45.5,29.91,SE,126,5.0,7.0,56,0.00,,,0.00,VWS V14.01,2013-04-24 15:52:00,
2013-04-24 11:55:00,61.4,44.6,29.91,ESE,106,6.0,6.0,54,0.00,,,0.00,VWS V14.01,2013-04-24 15:55:00,
2013-04-24 11:56:00,61.4,44.6,29.91,East,99,5.0,13.0,54,0.00,,,0.00,VWS V14.01,2013-04-24 15:56:00,
2013-04-24 11:57:00,61.2,44.4,29.91,East,96,5.0,13.0,54,0.00,,,0.00,VWS V14.01,2013-04-24 15:57:00,
2013-04-24 12:00:00,61.2,44.9,29.91,ESE,106,0.0,5.0,55,0.00,,,0.00,VWS V14.01,2013-04-24 16:00:00,
2013-04-24 12:01:00,61.3,44.5,29.91,East,87,5.0,5.0,54,0.00,,,0.00,VWS V14.01,2013-04-24 16:01:00,
2013-04-24 12:02:00,61.3,44.5,29.91,ESE,106,3.0,7.0,54,0.00,,,0.00,VWS V14.01,2013-04-24 16:02:00,
2013-04-24 12:05:00,61.6,44.8,29.90,East,100,8.0,12.0,54,0.00,,,0.00,VWS V14.01,2013-04-24 16:05:00,
2013-04-24 12:06:00,61.6,44.3,29.90,East,90,11.0,12.0,53,0.00,,,0.00,VWS V14.01,2013-04-24 16:06:00,
2013-04-24 12:07:00,61.5,43.7,29.90,East,92,5.0,12.0,52,0.00,,,0.00,VWS V14.01,2013-04-24 16:07:00,
2013-04-24 12:10:00,61.3,44.0,29.90,East,100,4.0,12.0,53,0.00,,,0.00,VWS V14.01,2013-04-24 16:10:00,
2013-04-24 12:11:00,61.4,45.1,29.90,ENE,78,2.0,14.0,55,0.00,,,0.00,VWS V14.01,2013-04-24 16:11:00,
2013-04-24 12:12:00,61.4,43.6,29.90,NE,55,10.0,14.0,52,0.00,,,0.00,VWS V14.01,2013-04-24 16:12:00,
2013-04-24 12:15:00,61.5,43.7,29.90,East,88,6.0,14.0,52,0.00,,,0.00,VWS V14.01,2013-04-24 16:15:00,
2013-04-24 12:16:00,61.7,43.9,29.90,ESE,107,5.0,8.0,52,0.00,,,0.00,VWS V14.01,2013-04-24 16:16:00,
2013-04-24 12:17:00,62.0,44.2,29.90,East,81,3.0,8.0,52,0.00,,,0.00,VWS V14.01,2013-04-24 16:17:00,
2013-04-24 12:18:00,62.1,43.8,29.90,ENE,78,3.0,8.0,51,0.00,,,0.00,VWS V14.01,2013-04-24 16:18:00,
2013-04-24 12:20:00,62.1,43.8,29.89,NNE,30,3.0,11.0,51,0.00,,,0.00,VWS V14.01,2013-04-24 16:20:00,
2013-04-24 12:21:00,62.1,44.3,29.89,NE,48,0.0,3.0,52,0.00,,,0.00,VWS V14.01,2013-04-24 16:21:00,
2013-04-24 12:22:00,62.2,44.9,29.89,East,93,2.0,4.0,53,0.00,,,0.00,VWS V14.01,2013-04-24 16:22:00,
2013-04-24 12:23:00,62.4,44.6,29.89,NE,55,2.0,6.0,52,0.00,,,0.00,VWS V14.01,2013-04-24 16:23:00,
2013-04-24 12:25:00,62.7,43.8,29.89,SE,134,12.0,12.0,50,0.00,,,0.00,VWS V14.01,2013-04-24 16:25:00,
2013-04-24 12:26:00,62.6,43.7,29.89,East,90,13.0,13.0,50,0.00,,,0.00,VWS V14.01,2013-04-24 16:26:00,
2013-04-24 12:27:00,62.4,44.0,29.89,East,82,5.0,14.0,51,0.00,,,0.00,VWS V14.01,2013-04-24 16:27:00,
2013-04-24 12:28:00,62.4,43.5,29.89,ENE,68,6.0,14.0,50,0.00,,,0.00,VWS V14.01,2013-04-24 16:28:00,
2013-04-24 12:30:00,62.3,44.0,29.89,East,97,5.0,14.0,51,0.00,,,0.00,VWS V14.01,2013-04-24 16:30:00,
2013-04-24 12:31:00,62.3,44.0,29.88,East,95,6.0,9.0,51,0.00,,,0.00,VWS V14.01,2013-04-24 16:31:00,
2013-04-24 12:32:00,62.4,44.6,29.89,ESE,122,3.0,9.0,52,0.00,,,0.00,VWS V14.01,2013-04-24 16:32:00,
2013-04-24 12:33:00,62.4,44.6,29.88,East,96,4.0,9.0,52,0.00,,,0.00,VWS V14.01,2013-04-24 16:33:00,
2013-04-24 12:35:00,62.6,44.8,29.88,East,88,3.0,9.0,52,0.00,,,0.00,VWS V14.01,2013-04-24 16:35:00,
2013-04-24 12:36:00,62.9,45.0,29.88,East,86,3.0,4.0,52,0.00,,,0.00,VWS V14.01,2013-04-24 16:36:00,
2013-04-24 12:37:00,63.0,45.1,29.88,East,92,17.0,17.0,52,0.00,,,0.00,VWS V14.01,2013-04-24 16:37:00,
2013-04-24 12:38:00,62.9,44.0,29.88,ESE,117,9.0,17.0,50,0.00,,,0.00,VWS V14.01,2013-04-24 16:38:00,
2013-04-24 12:40:00,63.0,45.1,29.88,SE,140,5.0,17.0,52,0.00,,,0.00,VWS V14.01,2013-04-24 16:40:00,
2013-04-24 12:41:00,63.1,45.2,29.88,East,84,5.0,7.0,52,0.00,,,0.00,VWS V14.01,2013-04-24 16:41:00,
2013-04-24 12:42:00,63.2,44.8,29.88,North,11,0.0,7.0,51,0.00,,,0.00,VWS V14.01,2013-04-24 16:42:00,
2013-04-24 12:43:00,63.3,45.4,29.88,ENE,66,6.0,7.0,52,0.00,,,0.00,VWS V14.01,2013-04-24 16:43:00,
2013-04-24 12:45:00,63.6,45.7,29.88,East,96,12.0,12.0,52,0.00,,,0.00,VWS V14.01,2013-04-24 16:45:00,
2013-04-24 12:46:00,63.5,44.5,29.87,ESE,103,5.0,12.0,50,0.00,,,0.00,VWS V14.01,2013-04-24 16:46:00,
2013-04-24 12:47:00,63.6,45.2,29.88,East,95,3.0,12.0,51,0.00,,,0.00,VWS V14.01,2013-04-24 16:47:00,
2013-04-24 12:48:00,63.7,44.7,29.87,East,95,5.0,12.0,50,0.00,,,0.00,VWS V14.01,2013-04-24 16:48:00,
2013-04-24 12:50:00,63.8,44.8,29.87,East,95,3.0,12.0,50,0.00,,,0.00,VWS V14.01,2013-04-24 16:50:00,
2013-04-24 12:51:00,64.0,45.5,29.87,East,80,10.0,10.0,51,0.00,,,0.00,VWS V14.01,2013-04-24 16:51:00,
2013-04-24 12:52:00,64.1,45.1,29.87,ENE,67,6.0,10.0,50,0.00,,,0.00,VWS V14.01,2013-04-24 16:52:00,
2013-04-24 12:53:00,64.1,44.6,29.87,East,98,5.0,10.0,49,0.00,,,0.00,VWS V14.01,2013-04-24 16:53:00,
2013-04-24 12:55:00,64.1,44.6,29.86,SE,132,4.0,12.0,49,0.00,,,0.00,VWS V14.01,2013-04-24 16:55:00,
2013-04-24 12:56:00,64.0,43.9,29.86,ENE,67,4.0,9.0,48,0.00,,,0.00,VWS V14.01,2013-04-24 16:56:00,
2013-04-24 12:57:00,64.0,43.9,29.86,North,360,3.0,9.0,48,0.00,,,0.00,VWS V14.01,2013-04-24 16:57:00,
2013-04-24 12:58:00,64.1,44.0,29.86,NW,305,6.0,9.0,48,0.00,,,0.00,VWS V14.01,2013-04-24 16:58:00,
2013-04-24 12:59:00,64.1,45.6,29.86,North,355,4.0,9.0,51,0.00,,,0.00,VWS V14.01,2013-04-24 16:59:00,
2013-04-24 13:00:00,64.1,44.0,29.86,North,5,2.0,9.0,48,0.00,,,0.00,VWS V14.01,2013-04-24 17:00:00,
2013-04-24 13:01:00,64.2,44.1,29.85,SE,132,7.0,14.0,48,0.00,,,0.00,VWS V14.01,2013-04-24 17:01:00,
2013-04-24 13:02:00,64.2,43.6,29.85,ENE,72,6.0,14.0,47,0.00,,,0.00,VWS V14.01,2013-04-24 17:02:00,
2013-04-24 13:03:00,64.2,43.6,29.85,East,88,6.0,14.0,47,0.00,,,0.00,VWS V14.01,2013-04-24 17:03:00,
2013-04-24 13:04:00,64.2,43.6,29.85,ENE,76,3.0,14.0,47,0.00,,,0.00,VWS V14.01,2013-04-24 17:04:00,
2013-04-24 13:05:00,64.1,43.5,29.85,East,81,5.0,14.0,47,0.00,,,0.00,VWS V14.01,2013-04-24 17:05:00,
2013-04-24 13:06:00,64.0,45.0,29.85,East,95,7.0,10.0,50,0.00,,,0.00,VWS V14.01,2013-04-24 17:06:00,
2013-04-24 13:08:00,64.3,44.2,29.85,East,98,4.0,10.0,48,0.00,,,0.00,VWS V14.01,2013-04-24 17:08:00,
2013-04-24 13:09:00,64.5,43.8,29.85,NNE,22,2.0,10.0,47,0.00,,,0.00,VWS V14.01,2013-04-24 17:09:00,
2013-04-24 13:10:00,64.5,43.8,29.85,ENE,58,2.0,10.0,47,0.00,,,0.00,VWS V14.01,2013-04-24 17:10:00,
2013-04-24 13:11:00,64.9,44.2,29.85,SE,130,2.0,6.0,47,0.00,,,0.00,VWS V14.01,2013-04-24 17:11:00,
2013-04-24 13:13:00,65.1,43.8,29.84,ESE,103,1.0,6.0,46,0.00,,,0.00,VWS V14.01,2013-04-24 17:13:00,
2013-04-24 13:14:00,65.2,43.9,29.84,East,96,1.0,6.0,46,0.00,,,0.00,VWS V14.01,2013-04-24 17:14:00,
2013-04-24 13:15:00,65.3,44.0,29.84,NNW,345,0.0,6.0,46,0.00,,,0.00,VWS V14.01,2013-04-24 17:15:00,
2013-04-24 13:16:00,65.7,44.4,29.84,ESE,117,3.0,4.0,46,0.00,,,0.00,VWS V14.01,2013-04-24 17:16:00,
2013-04-24 13:18:00,65.9,43.4,29.84,South,171,4.0,12.0,44,0.00,,,0.00,VWS V14.01,2013-04-24 17:18:00,
2013-04-24 13:19:00,66.0,43.5,29.84,ENE,68,5.0,12.0,44,0.00,,,0.00,VWS V14.01,2013-04-24 17:19:00,
2013-04-24 13:20:00,66.0,43.5,29.84,East,84,4.0,12.0,44,0.00,,,0.00,VWS V14.01,2013-04-24 17:20:00,
2013-04-24 13:22:00,65.9,43.4,29.83,ENE,68,3.0,10.0,44,0.00,,,0.00,VWS V14.01,2013-04-24 17:22:00,
2013-04-24 13:23:00,65.8,43.3,29.83,North,9,3.0,10.0,44,0.00,,,0.00,VWS V14.01,2013-04-24 17:23:00,
2013-04-24 13:24:00,65.7,43.2,29.83,NNE,30,1.0,10.0,44,0.00,,,0.00,VWS V14.01,2013-04-24 17:24:00,
2013-04-24 13:25:00,65.7,43.2,29.82,NNE,28,3.0,10.0,44,0.00,,,0.00,VWS V14.01,2013-04-24 17:25:00,
2013-04-24 13:27:00,65.9,44.0,29.82,East,92,9.0,9.0,45,0.00,,,0.00,VWS V14.01,2013-04-24 17:27:00,
2013-04-24 13:28:00,66.0,42.9,29.82,ESE,121,0.0,9.0,43,0.00,,,0.00,VWS V14.01,2013-04-24 17:28:00,
2013-04-24 13:29:00,66.1,43.6,29.82,ESE,117,0.0,9.0,44,0.00,,,0.00,VWS V14.01,2013-04-24 17:29:00,
2013-04-24 13:30:00,66.1,43.6,29.82,ESE,114,4.0,9.0,44,0.00,,,0.00,VWS V14.01,2013-04-24 17:30:00,
2013-04-24 13:32:00,66.5,43.9,29.82,SSW,205,3.0,5.0,44,0.00,,,0.00,VWS V14.01,2013-04-24 17:32:00,
2013-04-24 13:33:00,66.6,44.6,29.82,East,99,8.0,8.0,45,0.00,,,0.00,VWS V14.01,2013-04-24 17:33:00,
2013-04-24 13:34:00,66.7,43.5,29.82,ESE,116,5.0,10.0,43,0.00,,,0.00,VWS V14.01,2013-04-24 17:34:00,
2013-04-24 13:35:00,66.8,43.6,29.82,East,81,4.0,4.0,43,0.00,,,0.00,VWS V14.01,2013-04-24 17:35:00,
2013-04-24 13:37:00,66.5,42.7,29.82,East,98,7.0,13.0,42,0.00,,,0.00,VWS V14.01,2013-04-24 17:37:00,
2013-04-24 13:38:00,66.3,42.5,29.82,East,86,6.0,13.0,42,0.00,,,0.00,VWS V14.01,2013-04-24 17:38:00,
2013-04-24 13:39:00,66.3,43.2,29.81,ENE,74,4.0,13.0,43,0.00,,,0.00,VWS V14.01,2013-04-24 17:39:00,
2013-04-24 13:40:00,66.4,43.2,29.81,ESE,105,8.0,8.0,43,0.00,,,0.00,VWS V14.01,2013-04-24 17:40:00,
2013-04-24 13:42:00,66.6,43.4,29.81,SE,132,1.0,8.0,43,0.00,,,0.00,VWS V14.01,2013-04-24 17:42:00,
2013-04-24 13:43:00,66.7,43.5,29.81,East,92,3.0,10.0,43,0.00,,,0.00,VWS V14.01,2013-04-24 17:43:00,
2013-04-24 13:44:00,66.8,43.6,29.81,ESE,103,7.0,10.0,43,0.00,,,0.00,VWS V14.01,2013-04-24 17:44:00,
2013-04-24 13:45:00,67.0,43.2,29.81,East,82,5.0,9.0,42,0.00,,,0.00,VWS V14.01,2013-04-24 17:45:00,
2013-04-24 13:47:00,67.0,41.9,29.81,East,97,1.0,10.0,40,0.00,,,0.00,VWS V14.01,2013-04-24 17:47:00,
2013-04-24 13:48:00,67.0,41.9,29.81,NNE,15,0.0,10.0,40,0.00,,,0.00,VWS V14.01,2013-04-24 17:48:00,
2013-04-24 13:49:00,67.1,42.6,29.81,NNE,15,1.0,10.0,41,0.00,,,0.00,VWS V14.01,2013-04-24 17:49:00,
2013-04-24 13:50:00,67.2,42.7,29.80,NNE,21,0.0,1.0,41,0.00,,,0.00,VWS V14.01,2013-04-24 17:50:00,
2013-04-24 13:52:00,67.6,41.8,29.80,North,360,0.0,4.0,39,0.00,,,0.00,VWS V14.01,2013-04-24 17:52:00,
2013-04-24 13:53:00,67.8,42.0,29.80,East,80,3.0,8.0,39,0.00,,,0.00,VWS V14.01,2013-04-24 17:53:00,
2013-04-24 13:54:00,68.0,42.1,29.80,ENE,66,6.0,8.0,39,0.00,,,0.00,VWS V14.01,2013-04-24 17:54:00,
2013-04-24 13:55:00,68.1,42.2,29.80,ESE,111,2.0,8.0,39,0.00,,,0.00,VWS V14.01,2013-04-24 17:55:00,
2013-04-24 13:56:00,68.3,42.4,29.80,ESE,105,6.0,7.0,39,0.00,,,0.00,VWS V14.01,2013-04-24 17:56:00,
2013-04-24 13:57:00,68.5,41.9,29.80,ESE,111,1.0,9.0,38,0.00,,,0.00,VWS V14.01,2013-04-24 17:57:00,
2013-04-24 13:59:00,68.5,40.5,29.80,East,98,9.0,10.0,36,0.00,,,0.00,VWS V14.01,2013-04-24 17:59:00,
2013-04-24 14:00:00,68.4,41.1,29.80,ESE,107,5.0,10.0,37,0.00,,,0.00,VWS V14.01,2013-04-24 18:00:00,
2013-04-24 14:01:00,68.3,41.0,29.80,ESE,105,0.0,5.0,37,0.00,,,0.00,VWS V14.01,2013-04-24 18:01:00,
2013-04-24 14:02:00,68.4,43.2,29.80,East,101,5.0,6.0,40,0.00,,,0.00,VWS V14.01,2013-04-24 18:02:00,
2013-04-24 14:04:00,68.3,40.3,29.79,ESE,102,5.0,12.0,36,0.00,,,0.00,VWS V14.01,2013-04-24 18:04:00,
2013-04-24 14:05:00,68.2,42.3,29.79,East,94,4.0,12.0,39,0.00,,,0.00,VWS V14.01,2013-04-24 18:05:00,
2013-04-24 14:06:00,68.3,40.3,29.80,East,98,6.0,11.0,36,0.00,,,0.00,VWS V14.01,2013-04-24 18:06:00,
2013-04-24 14:07:00,68.2,41.0,29.79,ESE,103,7.0,11.0,37,0.00,,,0.00,VWS V14.01,2013-04-24 18:07:00,
2013-04-24 14:09:00,68.3,40.3,29.79,ESE,105,4.0,11.0,36,0.00,,,0.00,VWS V14.01,2013-04-24 18:09:00,
2013-04-24 14:10:00,68.3,40.3,29.79,ESE,106,5.0,11.0,36,0.00,,,0.00,VWS V14.01,2013-04-24 18:10:00,
2013-04-24 14:11:00,68.5,40.5,29.79,East,96,5.0,8.0,36,0.00,,,0.00,VWS V14.01,2013-04-24 18:11:00,
2013-04-24 14:12:00,68.6,39.9,29.79,ESE,118,1.0,8.0,35,0.00,,,0.00,VWS V14.01,2013-04-24 18:12:00,
2013-04-24 14:14:00,68.8,40.1,29.78,East,88,0.0,8.0,35,0.00,,,0.00,VWS V14.01,2013-04-24 18:14:00,
2013-04-24 14:15:00,68.8,41.5,29.78,ESE,103,3.0,4.0,37,0.00,,,0.00,VWS V14.01,2013-04-24 18:15:00,
2013-04-24 14:16:00,69.0,41.0,29.78,East,96,5.0,6.0,36,0.00,,,0.00,VWS V14.01,2013-04-24 18:16:00,
2013-04-24 14:17:00,69.2,41.1,29.78,ESE,113,5.0,7.0,36,0.00,,,0.00,VWS V14.01,2013-04-24 18:17:00,
2013-04-24 14:19:00,69.2,40.4,29.78,ESE,109,9.0,16.0,35,0.00,,,0.00,VWS V14.01,2013-04-24 18:19:00,
2013-04-24 14:20:00,69.1,39.6,29.78,ENE,75,12.0,12.0,34,0.00,,,0.00,VWS V14.01,2013-04-24 18:20:00,
2013-04-24 14:21:00,68.8,40.8,29.78,ENE,78,3.0,12.0,36,0.00,,,0.00,VWS V14.01,2013-04-24 18:21:00,
2013-04-24 14:23:00,68.8,41.5,29.78,ESE,121,6.0,12.0,37,0.00,,,0.00,VWS V14.01,2013-04-24 18:23:00,
2013-04-24 14:24:00,69.0,41.7,29.78,East,101,1.0,12.0,37,0.00,,,0.00,VWS V14.01,2013-04-24 18:24:00,
2013-04-24 14:25:00,69.0,41.7,29.78,ESE,102,3.0,4.0,37,0.00,,,0.00,VWS V14.01,2013-04-24 18:25:00,
2013-04-24 14:27:00,69.2,40.4,29.78,NNE,28,0.0,10.0,35,0.00,,,0.00,VWS V14.01,2013-04-24 18:27:00,
2013-04-24 14:28:00,69.3,41.2,29.78,East,92,6.0,10.0,36,0.00,,,0.00,VWS V14.01,2013-04-24 18:28:00,
2013-04-24 14:30:00,69.4,42.0,29.78,ESE,102,4.0,10.0,37,0.00,,,0.00,VWS V14.01,2013-04-24 18:30:00,
2013-04-24 14:32:00,69.6,42.2,29.78,SSE,167,1.0,10.0,37,0.00,,,0.00,VWS V14.01,2013-04-24 18:32:00,
2013-04-24 14:33:00,69.7,43.0,29.78,East,90,3.0,11.0,38,0.00,,,0.00,VWS V14.01,2013-04-24 18:33:00,
2013-04-24 14:35:00,69.7,43.0,29.78,ENE,65,1.0,1.0,38,0.00,,,0.00,VWS V14.01,2013-04-24 18:35:00,
2013-04-24 14:36:00,69.8,43.1,29.78,ENE,75,3.0,4.0,38,0.00,,,0.00,VWS V14.01,2013-04-24 18:36:00,
2013-04-24 14:37:00,70.0,43.9,29.78,ESE,117,10.0,10.0,39,0.00,,,0.00,VWS V14.01,2013-04-24 18:37:00,
2013-04-24 14:38:00,70.0,41.8,29.78,East,101,3.0,11.0,36,0.00,,,0.00,VWS V14.01,2013-04-24 18:38:00,
2013-04-24 14:40:00,70.0,41.8,29.77,ESE,102,2.0,2.0,36,0.00,,,0.00,VWS V14.01,2013-04-24 18:40:00,
2013-04-24 14:41:00,70.1,42.7,29.77,SW,223,2.0,3.0,37,0.00,,,0.00,VWS V14.01,2013-04-24 18:41:00,
2013-04-24 14:42:00,70.3,42.8,29.77,ENE,70,4.0,5.0,37,0.00,,,0.00,VWS V14.01,2013-04-24 18:42:00,
2013-04-24 14:43:00,70.4,42.9,29.77,ENE,77,5.0,7.0,37,0.00,,,0.00,VWS V14.01,2013-04-24 18:43:00,
2013-04-24 14:45:00,70.6,44.5,29.77,East,86,5.0,5.0,39,0.00,,,0.00,VWS V14.01,2013-04-24 18:45:00,
2013-04-24 14:46:00,70.8,43.3,29.78,NE,37,6.0,10.0,37,0.00,,,0.00,VWS V14.01,2013-04-24 18:46:00,
2013-04-24 14:47:00,70.8,42.5,29.77,East,101,2.0,10.0,36,0.00,,,0.00,VWS V14.01,2013-04-24 18:47:00,
2013-04-24 14:48:00,70.7,41.7,29.78,East,90,5.0,10.0,35,0.00,,,0.00,VWS V14.01,2013-04-24 18:48:00,
2013-04-24 14:50:00,70.7,41.0,29.78,East,101,8.0,11.0,34,0.00,,,0.00,VWS V14.01,2013-04-24 18:50:00,
2013-04-24 14:51:00,70.5,40.8,29.77,ESE,122,5.0,11.0,34,0.00,,,0.00,VWS V14.01,2013-04-24 18:51:00,
2013-04-24 14:52:00,70.4,42.2,29.77,East,90,10.0,11.0,36,0.00,,,0.00,VWS V14.01,2013-04-24 18:52:00,
2013-04-24 14:54:00,70.3,42.8,29.77,East,80,10.0,13.0,37,0.00,,,0.00,VWS V14.01,2013-04-24 18:54:00,
2013-04-24 14:55:00,70.2,42.7,29.77,ENE,63,3.0,3.0,37,0.00,,,0.00,VWS V14.01,2013-04-24 18:55:00,
2013-04-24 14:56:00,70.1,42.7,29.77,East,98,5.0,6.0,37,0.00,,,0.00,VWS V14.01,2013-04-24 18:56:00,
2013-04-24 14:58:00,70.2,43.4,29.77,East,95,5.0,7.0,38,0.00,,,0.00,VWS V14.01,2013-04-24 18:58:00,
2013-04-24 14:59:00,70.3,42.8,29.77,NE,42,2.0,7.0,37,0.00,,,0.00,VWS V14.01,2013-04-24 18:59:00,
2013-04-24 15:00:00,70.4,42.9,29.77,ESE,102,5.0,6.0,37,0.00,,,0.00,VWS V14.01,2013-04-24 19:00:00,
2013-04-24 15:01:00,70.7,43.9,29.77,South,169,1.0,6.0,38,0.00,,,0.00,VWS V14.01,2013-04-24 19:01:00,
2013-04-24 15:03:00,70.9,44.0,29.77,East,86,3.0,10.0,38,0.00,,,0.00,VWS V14.01,2013-04-24 19:03:00,
2013-04-24 15:04:00,70.9,42.6,29.77,ESE,115,10.0,11.0,36,0.00,,,0.00,VWS V14.01,2013-04-24 19:04:00,
2013-04-24 15:05:00,70.9,42.6,29.77,East,91,3.0,4.0,36,0.00,,,0.00,VWS V14.01,2013-04-24 19:05:00,
2013-04-24 15:06:00,70.8,44.0,29.77,East,96,13.0,14.0,38,0.00,,,0.00,VWS V14.01,2013-04-24 19:06:00,
2013-04-24 15:07:00,70.8,43.3,29.77,East,91,5.0,14.0,37,0.00,,,0.00,VWS V14.01,2013-04-24 19:07:00,
2013-04-24 15:08:00,70.8,43.3,29.77,East,101,7.0,14.0,37,0.00,,,0.00,VWS V14.01,2013-04-24 19:08:00,
2013-04-24 15:09:00,70.8,44.0,29.77,East,90,5.0,14.0,38,0.00,,,0.00,VWS V14.01,2013-04-24 19:09:00,
2013-04-24 15:10:00,70.8,44.0,29.77,East,96,10.0,10.0,38,0.00,,,0.00,VWS V14.01,2013-04-24 19:10:00,
2013-04-24 15:11:00,70.6,43.1,29.77,ENE,76,8.0,11.0,37,0.00,,,0.00,VWS V14.01,2013-04-24 19:11:00,
2013-04-24 15:12:00,70.5,42.3,29.77,ENE,63,10.0,11.0,36,0.00,,,0.00,VWS V14.01,2013-04-24 19:12:00,
2013-04-24 15:13:00,70.6,45.1,29.77,ENE,78,4.0,11.0,40,0.00,,,0.00,VWS V14.01,2013-04-24 19:13:00,
2013-04-24 15:14:00,70.7,43.9,29.77,East,90,6.0,11.0,38,0.00,,,0.00,VWS V14.01,2013-04-24 19:14:00,
2013-04-24 15:15:00,70.6,43.1,29.77,ENE,65,4.0,12.0,37,0.00,,,0.00,VWS V14.01,2013-04-24 19:15:00,
2013-04-24 15:16:00,70.5,43.0,29.76,East,91,3.0,12.0,37,0.00,,,0.00,VWS V14.01,2013-04-24 19:16:00,
2013-04-24 15:17:00,70.5,43.7,29.76,East,85,2.0,12.0,38,0.00,,,0.00,VWS V14.01,2013-04-24 19:17:00,
2013-04-24 15:18:00,70.6,43.8,29.76,SSW,210,3.0,12.0,38,0.00,,,0.00,VWS V14.01,2013-04-24 19:18:00,
2013-04-24 15:19:00,70.7,43.9,29.76,East,90,5.0,12.0,38,0.00,,,0.00,VWS V14.01,2013-04-24 19:19:00,
2013-04-24 15:20:00,70.7,43.2,29.76,East,82,4.0,11.0,37,0.00,,,0.00,VWS V14.01,2013-04-24 19:20:00,
2013-04-24 15:21:00,70.8,44.0,29.76,ESE,116,2.0,11.0,38,0.00,,,0.00,VWS V14.01,2013-04-24 19:21:00,
2013-04-24 15:22:00,71.0,44.1,29.76,East,79,1.0,11.0,38,0.00,,,0.00,VWS V14.01,2013-04-24 19:22:00,
2013-04-24 15:23:00,71.1,44.2,29.76,East,80,4.0,11.0,38,0.00,,,0.00,VWS V14.01,2013-04-24 19:23:00,
2013-04-24 15:24:00,71.2,43.6,29.76,ESE,110,6.0,11.0,37,0.00,,,0.00,VWS V14.01,2013-04-24 19:24:00,
2013-04-24 15:25:00,71.3,43.7,29.76,East,97,6.0,7.0,37,0.00,,,0.00,VWS V14.01,2013-04-24 19:25:00,
2013-04-24 15:26:00,71.3,43.7,29.76,East,82,6.0,13.0,37,0.00,,,0.00,VWS V14.01,2013-04-24 19:26:00,
2013-04-24 15:27:00,71.3,43.7,29.76,East,98,8.0,13.0,37,0.00,,,0.00,VWS V14.01,2013-04-24 19:27:00,
2013-04-24 15:28:00,71.2,43.6,29.76,East,91,6.0,13.0,37,0.00,,,0.00,VWS V14.01,2013-04-24 19:28:00,
2013-04-24 15:30:00,71.2,42.9,29.76,NE,48,2.0,13.0,36,0.00,,,0.00,VWS V14.01,2013-04-24 19:30:00,
2013-04-24 15:32:00,71.2,43.6,29.75,ESE,106,1.0,10.0,37,0.00,,,0.00,VWS V14.01,2013-04-24 19:32:00,
2013-04-24 15:34:00,71.3,43.7,29.75,East,87,8.0,10.0,37,0.00,,,0.00,VWS V14.01,2013-04-24 19:34:00,
2013-04-24 15:35:00,71.4,43.8,29.75,ENE,69,6.0,10.0,37,0.00,,,0.00,VWS V14.01,2013-04-24 19:35:00,
2013-04-24 15:36:00,71.6,44.7,29.75,ESE,103,2.0,7.0,38,0.00,,,0.00,VWS V14.01,2013-04-24 19:36:00,
2013-04-24 15:37:00,71.8,43.4,29.75,ENE,67,3.0,7.0,36,0.00,,,0.00,VWS V14.01,2013-04-24 19:37:00,
2013-04-24 15:38:00,71.9,44.9,29.75,NW,325,1.0,7.0,38,0.00,,,0.00,VWS V14.01,2013-04-24 19:38:00,
2013-04-24 15:40:00,72.1,44.4,29.75,ESE,118,7.0,10.0,37,0.00,,,0.00,VWS V14.01,2013-04-24 19:40:00,
2013-04-24 15:41:00,72.1,43.7,29.75,East,90,4.0,8.0,36,0.00,,,0.00,VWS V14.01,2013-04-24 19:41:00,
2013-04-24 15:42:00,72.2,43.8,29.75,ENE,78,5.0,8.0,36,0.00,,,0.00,VWS V14.01,2013-04-24 19:42:00,
2013-04-24 15:43:00,72.2,43.8,29.75,SSE,164,1.0,8.0,36,0.00,,,0.00,VWS V14.01,2013-04-24 19:43:00,
2013-04-24 15:45:00,72.2,43.1,29.75,ESE,117,11.0,14.0,35,0.00,,,0.00,VWS V14.01,2013-04-24 19:45:00,
2013-04-24 15:46:00,72.0,43.6,29.74,ENE,71,1.0,14.0,36,0.00,,,0.00,VWS V14.01,2013-04-24 19:46:00,
2013-04-24 15:48:00,72.0,43.6,29.75,ESE,104,10.0,14.0,36,0.00,,,0.00,VWS V14.01,2013-04-24 19:48:00,
2013-04-24 15:50:00,71.7,42.6,29.75,East,91,0.0,3.0,35,0.00,,,0.00,VWS V14.01,2013-04-24 19:50:00,
2013-04-24 15:52:00,71.8,42.7,29.74,East,92,2.0,5.0,35,0.00,,,0.00,VWS V14.01,2013-04-24 19:52:00,
2013-04-24 15:53:00,71.9,45.6,29.74,East,84,3.0,5.0,39,0.00,,,0.00,VWS V14.01,2013-04-24 19:53:00,
2013-04-24 15:55:00,72.1,43.7,29.74,SE,128,7.0,9.0,36,0.00,,,0.00,VWS V14.01,2013-04-24 19:55:00,
2013-04-24 15:56:00,72.1,43.7,29.74,SE,134,4.0,9.0,36,0.00,,,0.00,VWS V14.01,2013-04-24 19:56:00,
2013-04-24 15:57:00,72.0,43.6,29.74,East,86,11.0,12.0,36,0.00,,,0.00,VWS V14.01,2013-04-24 19:57:00,
2013-04-24 15:58:00,72.0,43.6,29.74,ESE,105,12.0,12.0,36,0.00,,,0.00,VWS V14.01,2013-04-24 19:58:00,
2013-04-24 16:00:00,71.8,44.8,29.74,SE,134,6.0,9.0,38,0.00,,,0.00,VWS V14.01,2013-04-24 20:00:00,
2013-04-24 16:01:00,71.8,44.8,29.74,North,355,2.0,9.0,38,0.00,,,0.00,VWS V14.01,2013-04-24 20:01:00,
2013-04-24 16:02:00,71.9,43.5,29.74,ESE,120,2.0,9.0,36,0.00,,,0.00,VWS V14.01,2013-04-24 20:02:00,
2013-04-24 16:03:00,72.0,44.3,29.74,ENE,73,6.0,9.0,37,0.00,,,0.00,VWS V14.01,2013-04-24 20:03:00,
2013-04-24 16:05:00,72.1,43.0,29.74,East,95,10.0,13.0,35,0.00,,,0.00,VWS V14.01,2013-04-24 20:05:00,
2013-04-24 16:06:00,72.1,43.0,29.74,ESE,112,5.0,13.0,35,0.00,,,0.00,VWS V14.01,2013-04-24 20:06:00,
2013-04-24 16:07:00,72.0,42.9,29.74,ESE,117,0.0,13.0,35,0.00,,,0.00,VWS V14.01,2013-04-24 20:07:00,
2013-04-24 16:08:00,72.1,43.7,29.74,ENE,60,3.0,13.0,36,0.00,,,0.00,VWS V14.01,2013-04-24 20:08:00,
2013-04-24 16:09:00,72.2,43.8,29.74,ESE,103,3.0,13.0,36,0.00,,,0.00,VWS V14.01,2013-04-24 20:09:00,
2013-04-24 16:10:00,72.3,42.4,29.74,ESE,107,7.0,10.0,34,0.00,,,0.00,VWS V14.01,2013-04-24 20:10:00,
2013-04-24 16:11:00,72.5,43.3,29.74,ESE,115,12.0,14.0,35,0.00,,,0.00,VWS V14.01,2013-04-24 20:11:00,
2013-04-24 16:12:00,72.5,42.6,29.74,East,94,13.0,14.0,34,0.00,,,0.00,VWS V14.01,2013-04-24 20:12:00,
2013-04-24 16:13:00,72.3,42.4,29.74,East,99,5.0,14.0,34,0.00,,,0.00,VWS V14.01,2013-04-24 20:13:00,
2013-04-24 16:14:00,72.2,42.3,29.74,East,86,13.0,14.0,34,0.00,,,0.00,VWS V14.01,2013-04-24 20:14:00,
2013-04-24 16:15:00,71.9,42.8,29.74,East,83,4.0,11.0,35,0.00,,,0.00,VWS V14.01,2013-04-24 20:15:00,
2013-04-24 16:17:00,71.9,44.2,29.74,ENE,64,6.0,11.0,37,0.00,,,0.00,VWS V14.01,2013-04-24 20:17:00,
2013-04-24 16:18:00,71.9,42.8,29.74,East,100,10.0,11.0,35,0.00,,,0.00,VWS V14.01,2013-04-24 20:18:00,
2013-04-24 16:19:00,71.9,42.0,29.74,East,80,4.0,12.0,34,0.00,,,0.00,VWS V14.01,2013-04-24 20:19:00,
2013-04-24 16:20:00,71.9,43.5,29.74,NW,304,5.0,6.0,36,0.00,,,0.00,VWS V14.01,2013-04-24 20:20:00,
2013-04-24 16:22:00,71.8,44.2,29.74,NNW,345,0.0,6.0,37,0.00,,,0.00,VWS V14.01,2013-04-24 20:22:00,
2013-04-24 16:23:00,71.9,43.5,29.74,East,94,1.0,6.0,36,0.00,,,0.00,VWS V14.01,2013-04-24 20:23:00,
2013-04-24 16:24:00,71.9,43.5,29.74,ENE,73,4.0,6.0,36,0.00,,,0.00,VWS V14.01,2013-04-24 20:24:00,
2013-04-24 16:25:00,72.0,42.9,29.74,NE,45,8.0,15.0,35,0.00,,,0.00,VWS V14.01,2013-04-24 20:25:00,
2013-04-24 16:27:00,71.8,42.7,29.73,East,86,11.0,15.0,35,0.00,,,0.00,VWS V14.01,2013-04-24 20:27:00,
2013-04-24 16:29:00,71.6,43.3,29.74,ESE,114,6.0,15.0,36,0.00,,,0.00,VWS V14.01,2013-04-24 20:29:00,
2013-04-24 16:30:00,71.5,43.2,29.73,ESE,106,1.0,6.0,36,0.00,,,0.00,VWS V14.01,2013-04-24 20:30:00,
2013-04-24 16:32:00,71.5,42.4,29.73,East,88,4.0,16.0,35,0.00,,,0.00,VWS V14.01,2013-04-24 20:32:00,
2013-04-24 16:34:00,71.6,44.0,29.73,ENE,64,2.0,16.0,37,0.00,,,0.00,VWS V14.01,2013-04-24 20:34:00,
2013-04-24 16:35:00,71.7,43.3,29.73,East,99,11.0,16.0,36,0.00,,,0.00,VWS V14.01,2013-04-24 20:35:00,
2013-04-24 16:36:00,71.7,41.9,29.73,East,101,10.0,14.0,34,0.00,,,0.00,VWS V14.01,2013-04-24 20:36:00,
2013-04-24 16:37:00,71.7,41.9,29.73,ENE,68,5.0,14.0,34,0.00,,,0.00,VWS V14.01,2013-04-24 20:37:00,
2013-04-24 16:39:00,71.8,42.7,29.74,East,98,9.0,14.0,35,0.00,,,0.00,VWS V14.01,2013-04-24 20:39:00,
2013-04-24 16:40:00,71.9,42.8,29.74,ENE,64,1.0,14.0,35,0.00,,,0.00,VWS V14.01,2013-04-24 20:40:00,
2013-04-24 16:41:00,71.9,42.8,29.74,East,92,6.0,9.0,35,0.00,,,0.00,VWS V14.01,2013-04-24 20:41:00,
2013-04-24 16:42:00,71.9,42.8,29.73,East,86,6.0,10.0,35,0.00,,,0.00,VWS V14.01,2013-04-24 20:42:00,
2013-04-24 16:43:00,71.9,42.8,29.73,East,82,4.0,10.0,35,0.00,,,0.00,VWS V14.01,2013-04-24 20:43:00,
2013-04-24 16:44:00,72.0,43.6,29.73,East,82,12.0,13.0,36,0.00,,,0.00,VWS V14.01,2013-04-24 20:44:00,
2013-04-24 16:45:00,72.0,42.1,29.73,East,99,3.0,13.0,34,0.00,,,0.00,VWS V14.01,2013-04-24 20:45:00,
2013-04-24 16:46:00,71.9,42.8,29.73,NE,49,2.0,9.0,35,0.00,,,0.00,VWS V14.01,2013-04-24 20:46:00,
2013-04-24 16:47:00,71.9,42.8,29.73,NNE,13,5.0,11.0,35,0.00,,,0.00,VWS V14.01,2013-04-24 20:47:00,
2013-04-24 16:48:00,71.8,42.7,29.73,East,87,7.0,11.0,35,0.00,,,0.00,VWS V14.01,2013-04-24 20:48:00,
2013-04-24 16:49:00,71.8,43.4,29.73,East,101,4.0,12.0,36,0.00,,,0.00,VWS V14.01,2013-04-24 20:49:00,
2013-04-24 16:50:00,71.8,42.7,29.73,East,91,5.0,12.0,35,0.00,,,0.00,VWS V14.01,2013-04-24 20:50:00,
2013-04-24 16:51:00,71.7,42.6,29.73,East,88,10.0,10.0,35,0.00,,,0.00,VWS V14.01,2013-04-24 20:51:00,
2013-04-24 16:52:00,71.7,42.6,29.73,ESE,103,5.0,12.0,35,0.00,,,0.00,VWS V14.01,2013-04-24 20:52:00,
2013-04-24 16:53:00,71.6,42.5,29.73,East,82,4.0,12.0,35,0.00,,,0.00,VWS V14.01,2013-04-24 20:53:00,
2013-04-24 16:54:00,71.6,42.5,29.73,East,90,10.0,12.0,35,0.00,,,0.00,VWS V14.01,2013-04-24 20:54:00,
2013-04-24 16:55:00,71.7,42.6,29.73,East,91,7.0,7.0,35,0.00,,,0.00,VWS V14.01,2013-04-24 20:55:00,
2013-04-24 16:56:00,71.6,42.5,29.73,ESE,109,8.0,10.0,35,0.00,,,0.00,VWS V14.01,2013-04-24 20:56:00,
2013-04-24 16:58:00,71.6,42.5,29.73,East,85,5.0,10.0,35,0.00,,,0.00,VWS V14.01,2013-04-24 20:58:00,
2013-04-24 16:59:00,71.7,43.3,29.73,East,86,7.0,10.0,36,0.00,,,0.00,VWS V14.01,2013-04-24 20:59:00,
2013-04-24 17:00:00,71.7,43.3,29.73,East,83,5.0,5.0,36,0.00,,,0.00,VWS V14.01,2013-04-24 21:00:00,
2013-04-24 17:01:00,71.8,43.4,29.73,ESE,111,6.0,13.0,36,0.00,,,0.00,VWS V14.01,2013-04-24 21:01:00,
2013-04-24 17:03:00,71.8,43.4,29.73,East,81,1.0,13.0,36,0.00,,,0.00,VWS V14.01,2013-04-24 21:03:00,
2013-04-24 17:04:00,72.0,42.9,29.73,East,79,3.0,13.0,35,0.00,,,0.00,VWS V14.01,2013-04-24 21:04:00,
2013-04-24 17:05:00,72.0,44.3,29.73,East,84,6.0,8.0,37,0.00,,,0.00,VWS V14.01,2013-04-24 21:05:00,
2013-04-24 17:06:00,72.1,43.7,29.73,East,83,5.0,8.0,36,0.00,,,0.00,VWS V14.01,2013-04-24 21:06:00,
2013-04-24 17:09:00,72.3,43.9,29.73,East,89,5.0,9.0,36,0.00,,,0.00,VWS V14.01,2013-04-24 21:09:00,
2013-04-24 17:10:00,72.3,43.9,29.73,ENE,65,6.0,7.0,36,0.00,,,0.00,VWS V14.01,2013-04-24 21:10:00,
2013-04-24 17:11:00,72.2,43.1,29.73,NE,40,4.0,7.0,35,0.00,,,0.00,VWS V14.01,2013-04-24 21:11:00,
2013-04-24 17:14:00,72.2,43.1,29.73,NE,48,2.0,7.0,35,0.00,,,0.00,VWS V14.01,2013-04-24 21:14:00,
2013-04-24 17:15:00,72.3,43.9,29.73,ENE,67,4.0,6.0,36,0.00,,,0.00,VWS V14.01,2013-04-24 21:15:00,
2013-04-24 17:17:00,72.3,43.1,29.73,ESE,121,11.0,14.0,35,0.00,,,0.00,VWS V14.01,2013-04-24 21:17:00,
2013-04-24 17:19:00,72.2,44.5,29.73,ESE,115,3.0,14.0,37,0.00,,,0.00,VWS V14.01,2013-04-24 21:19:00,
2013-04-24 17:20:00,72.0,43.6,29.73,ENE,70,2.0,7.0,36,0.00,,,0.00,VWS V14.01,2013-04-24 21:20:00,
2013-04-24 17:22:00,71.7,43.3,29.73,East,98,6.0,14.0,36,0.00,,,0.00,VWS V14.01,2013-04-24 21:22:00,
2013-04-24 17:24:00,71.4,43.1,29.73,East,101,5.0,14.0,36,0.00,,,0.00,VWS V14.01,2013-04-24 21:24:00,
2013-04-24 17:25:00,71.4,43.8,29.73,SSW,198,2.0,14.0,37,0.00,,,0.00,VWS V14.01,2013-04-24 21:25:00,
2013-04-24 17:26:00,71.3,43.0,29.73,East,84,9.0,13.0,36,0.00,,,0.00,VWS V14.01,2013-04-24 21:26:00,
2013-04-24 17:27:00,71.1,43.5,29.73,East,86,8.0,13.0,37,0.00,,,0.00,VWS V14.01,2013-04-24 21:27:00,
2013-04-24 17:29:00,71.1,43.5,29.73,NW,317,4.0,13.0,37,0.00,,,0.00,VWS V14.01,2013-04-24 21:29:00,
2013-04-24 17:30:00,71.1,43.5,29.73,ENE,67,2.0,13.0,37,0.00,,,0.00,VWS V14.01,2013-04-24 21:30:00,
2013-04-24 17:31:00,71.1,44.2,29.73,East,95,6.0,10.0,38,0.00,,,0.00,VWS V14.01,2013-04-24 21:31:00,
2013-04-24 17:32:00,71.1,43.5,29.73,East,88,10.0,10.0,37,0.00,,,0.00,VWS V14.01,2013-04-24 21:32:00,
2013-04-24 17:34:00,71.0,44.1,29.73,ESE,109,6.0,13.0,38,0.00,,,0.00,VWS V14.01,2013-04-24 21:34:00,
2013-04-24 17:35:00,71.0,43.4,29.73,East,81,9.0,9.0,37,0.00,,,0.00,VWS V14.01,2013-04-24 21:35:00,
2013-04-24 17:36:00,70.9,44.0,29.73,SE,128,10.0,14.0,38,0.00,,,0.00,VWS V14.01,2013-04-24 21:36:00,
2013-04-24 17:37:00,70.8,44.0,29.73,East,101,6.0,14.0,38,0.00,,,0.00,VWS V14.01,2013-04-24 21:37:00,
2013-04-24 17:39:00,70.7,43.9,29.73,ESE,107,9.0,14.0,38,0.00,,,0.00,VWS V14.01,2013-04-24 21:39:00,
2013-04-24 17:40:00,70.7,43.9,29.73,ESE,103,8.0,9.0,38,0.00,,,0.00,VWS V14.01,2013-04-24 21:40:00,
2013-04-24 17:41:00,70.6,43.8,29.73,East,89,7.0,11.0,38,0.00,,,0.00,VWS V14.01,2013-04-24 21:41:00,
2013-04-24 17:42:00,70.5,44.4,29.73,East,96,8.0,11.0,39,0.00,,,0.00,VWS V14.01,2013-04-24 21:42:00,
2013-04-24 17:44:00,70.4,44.3,29.73,East,94,6.0,11.0,39,0.00,,,0.00,VWS V14.01,2013-04-24 21:44:00,
2013-04-24 17:45:00,70.4,43.6,29.73,NE,53,4.0,7.0,38,0.00,,,0.00,VWS V14.01,2013-04-24 21:45:00,
2013-04-24 17:46:00,70.3,43.5,29.73,East,98,10.0,10.0,38,0.00,,,0.00,VWS V14.01,2013-04-24 21:46:00,
2013-04-24 17:48:00,70.3,43.5,29.73,ENE,78,3.0,12.0,38,0.00,,,0.00,VWS V14.01,2013-04-24 21:48:00,
2013-04-24 17:49:00,70.2,44.1,29.73,ESE,117,5.0,12.0,39,0.00,,,0.00,VWS V14.01,2013-04-24 21:49:00,
2013-04-24 17:50:00,70.2,43.4,29.73,East,92,8.0,11.0,38,0.00,,,0.00,VWS V14.01,2013-04-24 21:50:00,
2013-04-24 17:51:00,70.2,43.4,29.73,ENE,78,6.0,11.0,38,0.00,,,0.00,VWS V14.01,2013-04-24 21:51:00,
2013-04-24 17:53:00,70.2,43.4,29.73,NE,37,5.0,12.0,38,0.00,,,0.00,VWS V14.01,2013-04-24 21:53:00,
2013-04-24 17:54:00,70.2,44.1,29.73,East,99,11.0,12.0,39,0.00,,,0.00,VWS V14.01,2013-04-24 21:54:00,
2013-04-24 17:55:00,70.2,43.4,29.73,ENE,77,7.0,12.0,38,0.00,,,0.00,VWS V14.01,2013-04-24 21:55:00,
2013-04-24 17:56:00,70.2,44.1,29.73,East,88,2.0,12.0,39,0.00,,,0.00,VWS V14.01,2013-04-24 21:56:00,
2013-04-24 17:58:00,70.2,43.4,29.73,ENE,63,4.0,12.0,38,0.00,,,0.00,VWS V14.01,2013-04-24 21:58:00,
2013-04-24 17:59:00,70.1,44.0,29.73,ENE,75,1.0,12.0,39,0.00,,,0.00,VWS V14.01,2013-04-24 21:59:00,
2013-04-24 18:00:00,70.1,44.0,29.73,ENE,75,2.0,4.0,39,0.00,,,0.00,VWS V14.01,2013-04-24 22:00:00,
2013-04-24 18:01:00,70.2,44.1,29.73,ENE,76,4.0,5.0,39,0.00,,,0.00,VWS V14.01,2013-04-24 22:01:00,
2013-04-24 18:04:00,70.1,44.0,29.73,East,100,3.0,7.0,39,0.00,,,0.00,VWS V14.01,2013-04-24 22:04:00,
2013-04-24 18:05:00,70.1,44.0,29.73,East,95,8.0,8.0,39,0.00,,,0.00,VWS V14.01,2013-04-24 22:05:00,
2013-04-24 18:06:00,70.1,44.0,29.73,East,95,6.0,10.0,39,0.00,,,0.00,VWS V14.01,2013-04-24 22:06:00,
2013-04-24 18:09:00,70.0,43.9,29.73,ENE,78,4.0,11.0,39,0.00,,,0.00,VWS V14.01,2013-04-24 22:09:00,
2013-04-24 18:10:00,69.9,43.8,29.73,East,95,3.0,4.0,39,0.00,,,0.00,VWS V14.01,2013-04-24 22:10:00,
2013-04-24 18:11:00,69.9,43.8,29.73,East,95,1.0,4.0,39,0.00,,,0.00,VWS V14.01,2013-04-24 22:11:00,
2013-04-24 18:12:00,69.9,44.5,29.73,East,96,3.0,4.0,40,0.00,,,0.00,VWS V14.01,2013-04-24 22:12:00,
2013-04-24 18:14:00,69.7,43.7,29.73,NE,53,3.0,7.0,39,0.00,,,0.00,VWS V14.01,2013-04-24 22:14:00,
2013-04-24 18:15:00,69.7,43.7,29.73,ESE,114,5.0,7.0,39,0.00,,,0.00,VWS V14.01,2013-04-24 22:15:00,
2013-04-24 18:16:00,69.7,43.7,29.73,ENE,68,2.0,5.0,39,0.00,,,0.00,VWS V14.01,2013-04-24 22:16:00,
2013-04-24 18:17:00,69.7,44.3,29.73,East,95,4.0,5.0,40,0.00,,,0.00,VWS V14.01,2013-04-24 22:17:00,
2013-04-24 18:20:00,69.6,44.2,29.73,East,84,5.0,8.0,40,0.00,,,0.00,VWS V14.01,2013-04-24 22:20:00,
2013-04-24 18:21:00,69.5,43.5,29.73,ENE,69,1.0,5.0,39,0.00,,,0.00,VWS V14.01,2013-04-24 22:21:00,
2013-04-24 18:22:00,69.5,44.2,29.73,ENE,70,3.0,5.0,40,0.00,,,0.00,VWS V14.01,2013-04-24 22:22:00,
2013-04-24 18:25:00,69.3,44.0,29.73,East,91,3.0,3.0,40,0.00,,,0.00,VWS V14.01,2013-04-24 22:25:00,
2013-04-24 18:26:00,69.3,44.0,29.73,ENE,75,2.0,5.0,40,0.00,,,0.00,VWS V14.01,2013-04-24 22:26:00,
2013-04-24 18:27:00,69.2,44.5,29.73,ENE,76,3.0,5.0,41,0.00,,,0.00,VWS V14.01,2013-04-24 22:27:00,
2013-04-24 18:30:00,68.9,44.2,29.73,East,94,4.0,6.0,41,0.00,,,0.00,VWS V14.01,2013-04-24 22:30:00,
2013-04-24 18:31:00,68.9,44.2,29.73,East,97,3.0,7.0,41,0.00,,,0.00,VWS V14.01,2013-04-24 22:31:00,
2013-04-24 18:32:00,68.8,44.8,29.73,East,97,3.0,7.0,42,0.00,,,0.00,VWS V14.01,2013-04-24 22:32:00,
2013-04-24 18:35:00,68.5,44.5,29.73,East,86,2.0,4.0,42,0.00,,,0.00,VWS V14.01,2013-04-24 22:35:00,
2013-04-24 18:36:00,68.4,44.4,29.73,East,86,3.0,4.0,42,0.00,,,0.00,VWS V14.01,2013-04-24 22:36:00,
2013-04-24 18:37:00,68.3,44.3,29.73,East,86,2.0,4.0,42,0.00,,,0.00,VWS V14.01,2013-04-24 22:37:00,
2013-04-24 18:40:00,68.1,44.2,29.73,ENE,75,0.0,1.0,42,0.00,,,0.00,VWS V14.01,2013-04-24 22:40:00,
2013-04-24 18:41:00,68.1,44.2,29.73,ENE,75,0.0,1.0,42,0.00,,,0.00,VWS V14.01,2013-04-24 22:41:00,
2013-04-24 18:42:00,68.0,45.3,29.73,ENE,75,1.0,1.0,44,0.00,,,0.00,VWS V14.01,2013-04-24 22:42:00,
2013-04-24 18:45:00,67.8,44.5,29.73,ENE,75,3.0,3.0,43,0.00,,,0.00,VWS V14.01,2013-04-24 22:45:00,
2013-04-24 18:46:00,67.8,44.5,29.73,ENE,75,0.0,4.0,43,0.00,,,0.00,VWS V14.01,2013-04-24 22:46:00,
2013-04-24 18:47:00,67.7,45.0,29.73,ENE,75,0.0,4.0,44,0.00,,,0.00,VWS V14.01,2013-04-24 22:47:00,
2013-04-24 18:50:00,67.5,44.8,29.73,East,83,0.0,0.0,44,0.00,,,0.00,VWS V14.01,2013-04-24 22:50:00,
2013-04-24 18:51:00,67.5,44.8,29.73,East,83,0.0,0.0,44,0.00,,,0.00,VWS V14.01,2013-04-24 22:51:00,
2013-04-24 18:52:00,67.4,45.3,29.73,East,83,2.0,3.0,45,0.00,,,0.00,VWS V14.01,2013-04-24 22:52:00,
2013-04-24 18:55:00,67.2,45.2,29.73,ESE,107,3.0,4.0,45,0.00,,,0.00,VWS V14.01,2013-04-24 22:55:00,
2013-04-24 18:56:00,67.2,44.6,29.73,ENE,70,1.0,4.0,44,0.00,,,0.00,VWS V14.01,2013-04-24 22:56:00,
2013-04-24 18:57:00,67.1,44.5,29.73,ENE,70,0.0,4.0,44,0.00,,,0.00,VWS V14.01,2013-04-24 22:57:00,
2013-04-24 18:58:00,67.1,45.1,29.73,ENE,71,2.0,4.0,45,0.00,,,0.00,VWS V14.01,2013-04-24 22:58:00,
2013-04-24 19:00:00,67.0,45.0,29.73,ENE,71,0.0,4.0,45,0.00,,,0.00,VWS V14.01,2013-04-24 23:00:00,
2013-04-24 19:01:00,67.0,45.0,29.73,NNE,16,1.0,3.0,45,0.00,,,0.00,VWS V14.01,2013-04-24 23:01:00,
2013-04-24 19:02:00,66.9,45.5,29.73,ENE,60,2.0,3.0,46,0.00,,,0.00,VWS V14.01,2013-04-24 23:02:00,
2013-04-24 19:03:00,66.8,44.8,29.73,ENE,60,0.0,3.0,45,0.00,,,0.00,VWS V14.01,2013-04-24 23:03:00,
2013-04-24 19:05:00,66.7,45.3,29.73,NE,46,0.0,3.0,46,0.00,,,0.00,VWS V14.01,2013-04-24 23:05:00,
2013-04-24 19:06:00,66.7,44.7,29.73,NE,46,0.0,1.0,45,0.00,,,0.00,VWS V14.01,2013-04-24 23:06:00,
2013-04-24 19:07:00,66.6,44.6,29.73,ENE,69,0.0,4.0,45,0.00,,,0.00,VWS V14.01,2013-04-24 23:07:00,
2013-04-24 19:08:00,66.6,44.6,29.73,ENE,75,3.0,4.0,45,0.00,,,0.00,VWS V14.01,2013-04-24 23:08:00,
2013-04-24 19:10:00,66.6,44.6,29.73,East,96,5.0,5.0,45,0.00,,,0.00,VWS V14.01,2013-04-24 23:10:00,
2013-04-24 19:11:00,66.6,44.0,29.73,ENE,67,1.0,5.0,44,0.00,,,0.00,VWS V14.01,2013-04-24 23:11:00,
2013-04-24 19:12:00,66.6,44.0,29.73,ENE,67,1.0,5.0,44,0.00,,,0.00,VWS V14.01,2013-04-24 23:12:00,
2013-04-24 19:13:00,66.6,44.6,29.73,ENE,68,1.0,5.0,45,0.00,,,0.00,VWS V14.01,2013-04-24 23:13:00,
2013-04-24 19:15:00,66.6,44.6,29.73,ENE,68,2.0,5.0,45,0.00,,,0.00,VWS V14.01,2013-04-24 23:15:00,
2013-04-24 19:16:00,66.6,44.6,29.73,ENE,68,2.0,3.0,45,0.00,,,0.00,VWS V14.01,2013-04-24 23:16:00,
2013-04-24 19:17:00,66.6,44.6,29.73,ENE,68,0.0,3.0,45,0.00,,,0.00,VWS V14.01,2013-04-24 23:17:00,
2013-04-24 19:18:00,66.5,45.7,29.73,ENE,65,0.0,3.0,47,0.00,,,0.00,VWS V14.01,2013-04-24 23:18:00,
2013-04-24 19:20:00,66.4,45.0,29.73,ENE,71,0.0,3.0,46,0.00,,,0.00,VWS V14.01,2013-04-24 23:20:00,
2013-04-24 19:21:00,66.3,44.9,29.73,NE,56,1.0,1.0,46,0.00,,,0.00,VWS V14.01,2013-04-24 23:21:00,
2013-04-24 19:22:00,66.3,44.9,29.73,ENE,57,0.0,2.0,46,0.00,,,0.00,VWS V14.01,2013-04-24 23:22:00,
2013-04-24 19:23:00,66.2,44.8,29.73,ENE,57,0.0,2.0,46,0.00,,,0.00,VWS V14.01,2013-04-24 23:23:00,
2013-04-24 19:25:00,66.1,45.3,29.73,NE,56,0.0,2.0,47,0.00,,,0.00,VWS V14.01,2013-04-24 23:25:00,
2013-04-24 19:26:00,66.0,45.8,29.73,ENE,57,0.0,1.0,48,0.00,,,0.00,VWS V14.01,2013-04-24 23:26:00,
2013-04-24 19:27:00,65.9,45.1,29.72,ENE,57,0.0,1.0,47,0.00,,,0.00,VWS V14.01,2013-04-24 23:27:00,
2013-04-24 19:28:00,65.8,45.6,29.72,NE,56,1.0,1.0,48,0.00,,,0.00,VWS V14.01,2013-04-24 23:28:00,
2013-04-24 19:29:00,65.8,45.6,29.72,ENE,57,1.0,2.0,48,0.00,,,0.00,VWS V14.01,2013-04-24 23:29:00,
2013-04-24 19:30:00,65.7,44.9,29.72,ENE,57,0.0,2.0,47,0.00,,,0.00,VWS V14.01,2013-04-24 23:30:00,
2013-04-24 19:31:00,65.6,45.4,29.72,ENE,57,0.0,0.0,48,0.00,,,0.00,VWS V14.01,2013-04-24 23:31:00,
2013-04-24 19:32:00,65.5,45.3,29.72,ENE,57,0.0,0.0,48,0.00,,,0.00,VWS V14.01,2013-04-24 23:32:00,
2013-04-24 19:33:00,65.5,44.8,29.72,ENE,57,0.0,0.0,47,0.00,,,0.00,VWS V14.01,2013-04-24 23:33:00,
2013-04-24 19:34:00,65.4,45.8,29.72,NE,43,3.0,3.0,49,0.00,,,0.00,VWS V14.01,2013-04-24 23:34:00,
2013-04-24 19:35:00,65.4,44.7,29.72,NE,43,0.0,3.0,47,0.00,,,0.00,VWS V14.01,2013-04-24 23:35:00,
2013-04-24 19:37:00,65.3,44.6,29.72,NNE,28,1.0,3.0,47,0.00,,,0.00,VWS V14.01,2013-04-24 23:37:00,
2013-04-24 19:38:00,65.3,45.1,29.72,NNE,28,2.0,3.0,48,0.00,,,0.00,VWS V14.01,2013-04-24 23:38:00,
2013-04-24 19:39:00,65.3,45.1,29.72,NNE,28,3.0,4.0,48,0.00,,,0.00,VWS V14.01,2013-04-24 23:39:00,
2013-04-24 19:40:00,65.3,44.6,29.72,North,355,2.0,4.0,47,0.00,,,0.00,VWS V14.01,2013-04-24 23:40:00,
2013-04-24 19:42:00,65.3,44.6,29.71,North,360,3.0,3.0,47,0.00,,,0.00,VWS V14.01,2013-04-24 23:42:00,
2013-04-24 19:43:00,65.3,44.6,29.71,North,5,2.0,7.0,47,0.00,,,0.00,VWS V14.01,2013-04-24 23:43:00,
2013-04-24 19:44:00,65.4,44.7,29.71,North,360,3.0,7.0,47,0.00,,,0.00,VWS V14.01,2013-04-24 23:44:00,
2013-04-24 19:45:00,65.4,44.7,29.71,NW,315,4.0,7.0,47,0.00,,,0.00,VWS V14.01,2013-04-24 23:45:00,
2013-04-24 19:47:00,65.5,44.8,29.71,NNW,327,4.0,6.0,47,0.00,,,0.00,VWS V14.01,2013-04-24 23:47:00,
2013-04-24 19:48:00,65.6,44.8,29.71,NNW,327,3.0,6.0,47,0.00,,,0.00,VWS V14.01,2013-04-24 23:48:00,
2013-04-24 19:49:00,65.6,44.8,29.71,NNW,328,3.0,6.0,47,0.00,,,0.00,VWS V14.01,2013-04-24 23:49:00,
2013-04-24 19:50:00,65.7,44.9,29.71,NNW,330,3.0,6.0,47,0.00,,,0.00,VWS V14.01,2013-04-24 23:50:00,
2013-04-24 19:52:00,65.7,44.9,29.70,NNE,13,1.0,6.0,47,0.00,,,0.00,VWS V14.01,2013-04-24 23:52:00,
2013-04-24 19:53:00,65.7,45.5,29.70,NNW,333,2.0,6.0,48,0.00,,,0.00,VWS V14.01,2013-04-24 23:53:00,
2013-04-24 19:54:00,65.6,45.4,29.70,NW,312,3.0,7.0,48,0.00,,,0.00,VWS V14.01,2013-04-24 23:54:00,
2013-04-24 19:55:00,65.6,45.4,29.71,NNW,328,3.0,7.0,48,0.00,,,0.00,VWS V14.01,2013-04-24 23:55:00,
2013-04-24 19:57:00,65.5,44.8,29.70,North,5,7.0,9.0,47,0.00,,,0.00,VWS V14.01,2013-04-24 23:57:00,
2013-04-24 19:58:00,65.5,44.8,29.70,North,355,3.0,9.0,47,0.00,,,0.00,VWS V14.01,2013-04-24 23:58:00,
2013-04-24 19:59:00,65.5,44.8,29.70,NNW,345,3.0,9.0,47,0.00,,,0.00,VWS V14.01,2013-04-24 23:59:00,
2013-04-24 20:00:00,65.6,44.8,29.70,NW,313,7.0,7.0,47,0.00,,,0.00,VWS V14.01,2013-04-25 00:00:00,
2013-04-24 20:02:00,65.7,44.9,29.71,NNW,333,2.0,7.0,47,0.00,,,0.00,VWS V14.01,2013-04-25 00:02:00,
2013-04-24 20:03:00,65.6,45.4,29.70,North,360,2.0,7.0,48,0.00,,,0.00,VWS V14.01,2013-04-25 00:03:00,
2013-04-24 20:04:00,65.7,44.9,29.70,WNW,294,1.0,7.0,47,0.00,,,0.00,VWS V14.01,2013-04-25 00:04:00,
2013-04-24 20:05:00,65.6,44.8,29.70,NW,313,4.0,4.0,47,0.00,,,0.00,VWS V14.01,2013-04-25 00:05:00,
2013-04-24 20:07:00,65.7,44.9,29.70,North,355,4.0,7.0,47,0.00,,,0.00,VWS V14.01,2013-04-25 00:07:00,
2013-04-24 20:08:00,65.7,44.9,29.70,North,350,3.0,7.0,47,0.00,,,0.00,VWS V14.01,2013-04-25 00:08:00,
2013-04-24 20:09:00,65.7,44.9,29.69,NNW,338,3.0,7.0,47,0.00,,,0.00,VWS V14.01,2013-04-25 00:09:00,
2013-04-24 20:10:00,65.8,45.0,29.69,NNW,341,0.0,3.0,47,0.00,,,0.00,VWS V14.01,2013-04-25 00:10:00,
2013-04-24 20:12:00,65.8,45.0,29.68,NNW,341,1.0,3.0,47,0.00,,,0.00,VWS V14.01,2013-04-25 00:12:00,
2013-04-24 20:13:00,65.8,45.0,29.68,NNW,341,1.0,3.0,47,0.00,,,0.00,VWS V14.01,2013-04-25 00:13:00,
2013-04-24 20:14:00,65.8,45.0,29.68,NNW,341,1.0,3.0,47,0.00,,,0.00,VWS V14.01,2013-04-25 00:14:00,
2013-04-24 20:15:00,65.8,45.0,29.68,NNW,341,1.0,3.0,47,0.00,,,0.00,VWS V14.01,2013-04-25 00:15:00,
2013-04-24 20:16:00,65.7,46.0,29.68,NNW,341,3.0,3.0,49,0.00,,,0.00,VWS V14.01,2013-04-25 00:16:00,
2013-04-24 20:17:00,65.6,44.8,29.68,NNW,336,1.0,4.0,47,0.00,,,0.00,VWS V14.01,2013-04-25 00:17:00,
2013-04-24 20:18:00,65.6,45.4,29.68,NNW,336,2.0,4.0,48,0.00,,,0.00,VWS V14.01,2013-04-25 00:18:00,
2013-04-24 20:19:00,65.5,45.3,29.68,NNW,336,2.0,4.0,48,0.00,,,0.00,VWS V14.01,2013-04-25 00:19:00,
2013-04-24 20:20:00,65.5,45.8,29.68,NNW,336,2.0,4.0,49,0.00,,,0.00,VWS V14.01,2013-04-25 00:20:00,
2013-04-24 20:21:00,65.2,46.6,29.68,NNW,336,0.0,2.0,51,0.00,,,0.00,VWS V14.01,2013-04-25 00:21:00,
2013-04-24 20:22:00,65.0,45.4,29.68,NNW,336,1.0,3.0,49,0.00,,,0.00,VWS V14.01,2013-04-25 00:22:00,
2013-04-24 20:23:00,64.8,45.2,29.68,NNW,336,3.0,3.0,49,0.00,,,0.00,VWS V14.01,2013-04-25 00:23:00,
2013-04-24 20:24:00,64.7,45.1,29.68,NNW,336,1.0,3.0,49,0.00,,,0.00,VWS V14.01,2013-04-25 00:24:00,
2013-04-24 20:25:00,64.7,45.1,29.68,NNW,336,1.0,3.0,49,0.00,,,0.00,VWS V14.01,2013-04-25 00:25:00,
2013-04-24 20:26:00,64.6,45.0,29.68,NNW,340,4.0,5.0,49,0.00,,,0.00,VWS V14.01,2013-04-25 00:26:00,
2013-04-24 20:28:00,64.5,44.9,29.68,NNW,328,3.0,5.0,49,0.00,,,0.00,VWS V14.01,2013-04-25 00:28:00,
2013-04-24 20:29:00,64.5,44.9,29.69,NNW,328,3.0,5.0,49,0.00,,,0.00,VWS V14.01,2013-04-25 00:29:00,
2013-04-24 20:30:00,64.5,45.5,29.69,NNW,328,0.0,5.0,50,0.00,,,0.00,VWS V14.01,2013-04-25 00:30:00,
2013-04-24 20:31:00,64.4,45.4,29.69,NNW,328,0.0,1.0,50,0.00,,,0.00,VWS V14.01,2013-04-25 00:31:00,
2013-04-24 20:33:00,64.3,45.8,29.69,NNW,328,0.0,1.0,51,0.00,,,0.00,VWS V14.01,2013-04-25 00:33:00,
2013-04-24 20:34:00,64.2,45.7,29.69,NNW,327,1.0,1.0,51,0.00,,,0.00,VWS V14.01,2013-04-25 00:34:00,
2013-04-24 20:35:00,64.2,45.7,29.69,North,355,3.0,3.0,51,0.00,,,0.00,VWS V14.01,2013-04-25 00:35:00,
2013-04-24 20:36:00,64.1,45.6,29.69,North,355,0.0,3.0,51,0.00,,,0.00,VWS V14.01,2013-04-25 00:36:00,
2013-04-24 20:38:00,64.0,46.0,29.69,North,355,0.0,3.0,52,0.00,,,0.00,VWS V14.01,2013-04-25 00:38:00,
2013-04-24 20:39:00,63.8,46.4,29.69,North,355,0.0,3.0,53,0.00,,,0.00,VWS V14.01,2013-04-25 00:39:00,
2013-04-24 20:40:00,63.8,46.4,29.69,North,355,0.0,3.0,53,0.00,,,0.00,VWS V14.01,2013-04-25 00:40:00,
2013-04-24 20:41:00,63.6,46.2,29.69,North,355,0.0,2.0,53,0.00,,,0.00,VWS V14.01,2013-04-25 00:41:00,
2013-04-24 20:43:00,63.4,46.5,29.69,North,355,1.0,2.0,54,0.00,,,0.00,VWS V14.01,2013-04-25 00:43:00,
2013-04-24 20:44:00,63.2,45.8,29.69,North,355,0.0,2.0,53,0.00,,,0.00,VWS V14.01,2013-04-25 00:44:00,
2013-04-24 20:45:00,63.2,45.8,29.69,North,355,0.0,2.0,53,0.00,,,0.00,VWS V14.01,2013-04-25 00:45:00,
2013-04-24 20:46:00,63.0,46.1,29.69,North,355,0.0,1.0,54,0.00,,,0.00,VWS V14.01,2013-04-25 00:46:00,
2013-04-24 20:48:00,62.9,46.5,29.69,North,355,0.0,1.0,55,0.00,,,0.00,VWS V14.01,2013-04-25 00:48:00,
2013-04-24 20:49:00,62.7,45.8,29.69,North,355,0.0,1.0,54,0.00,,,0.00,VWS V14.01,2013-04-25 00:49:00,
2013-04-24 20:50:00,62.7,45.8,29.69,North,355,0.0,0.0,54,0.00,,,0.00,VWS V14.01,2013-04-25 00:50:00,
2013-04-24 20:52:00,62.6,46.2,29.68,North,355,1.0,2.0,55,0.00,,,0.00,VWS V14.01,2013-04-25 00:52:00,
2013-04-24 20:53:00,62.5,46.6,29.68,North,355,0.0,2.0,56,0.00,,,0.00,VWS V14.01,2013-04-25 00:53:00,
2013-04-24 20:54:00,62.4,46.5,29.68,North,355,0.0,2.0,56,0.00,,,0.00,VWS V14.01,2013-04-25 00:54:00,
2013-04-24 20:55:00,62.4,46.5,29.68,North,355,0.0,0.0,56,0.00,,,0.00,VWS V14.01,2013-04-25 00:55:00,
2013-04-24 20:57:00,62.3,45.5,29.69,ENE,61,0.0,4.0,54,0.00,,,0.00,VWS V14.01,2013-04-25 00:57:00,
2013-04-24 20:58:00,62.4,45.1,29.69,ENE,61,0.0,4.0,53,0.00,,,0.00,VWS V14.01,2013-04-25 00:58:00,
2013-04-24 21:00:00,62.5,46.1,29.69,ENE,60,0.0,4.0,55,0.00,,,0.00,VWS V14.01,2013-04-25 01:00:00,
2013-04-24 21:02:00,62.6,46.2,29.68,ENE,60,0.0,1.0,55,0.00,,,0.00,VWS V14.01,2013-04-25 01:02:00,
2013-04-24 21:04:00,62.6,46.2,29.68,ENE,60,0.0,1.0,55,0.00,,,0.00,VWS V14.01,2013-04-25 01:04:00,
2013-04-24 21:05:00,62.6,46.2,29.68,ENE,60,0.0,1.0,55,0.00,,,0.00,VWS V14.01,2013-04-25 01:05:00,
2013-04-24 21:07:00,62.6,45.7,29.68,North,9,0.0,3.0,54,0.00,,,0.00,VWS V14.01,2013-04-25 01:07:00,
2013-04-24 21:09:00,62.7,45.8,29.68,ENE,65,0.0,3.0,54,0.00,,,0.00,VWS V14.01,2013-04-25 01:09:00,
2013-04-24 21:10:00,62.7,46.3,29.68,ENE,65,0.0,0.0,55,0.00,,,0.00,VWS V14.01,2013-04-25 01:10:00,
2013-04-24 21:11:00,62.7,46.3,29.68,ENE,65,0.0,0.0,55,0.00,,,0.00,VWS V14.01,2013-04-25 01:11:00,
2013-04-24 21:12:00,62.8,45.9,29.68,ENE,59,1.0,1.0,54,0.00,,,0.00,VWS V14.01,2013-04-25 01:12:00,
2013-04-24 21:14:00,62.8,45.9,29.69,NNE,14,0.0,2.0,54,0.00,,,0.00,VWS V14.01,2013-04-25 01:14:00,
2013-04-24 21:15:00,62.9,46.5,29.69,NNE,14,1.0,1.0,55,0.00,,,0.00,VWS V14.01,2013-04-25 01:15:00,
2013-04-24 21:16:00,62.9,46.0,29.68,ESE,102,5.0,6.0,54,0.00,,,0.00,VWS V14.01,2013-04-25 01:16:00,
2013-04-24 21:17:00,63.1,45.2,29.69,ESE,123,3.0,6.0,52,0.00,,,0.00,VWS V14.01,2013-04-25 01:17:00,
2013-04-24 21:19:00,63.5,46.6,29.69,ESE,113,0.0,6.0,54,0.00,,,0.00,VWS V14.01,2013-04-25 01:19:00,
2013-04-24 21:20:00,63.6,46.7,29.69,ESE,113,1.0,1.0,54,0.00,,,0.00,VWS V14.01,2013-04-25 01:20:00,
2013-04-24 21:21:00,63.6,46.7,29.69,ESE,113,0.0,1.0,54,0.00,,,0.00,VWS V14.01,2013-04-25 01:21:00,
2013-04-24 21:22:00,63.6,46.7,29.69,ESE,113,1.0,3.0,54,0.00,,,0.00,VWS V14.01,2013-04-25 01:22:00,
2013-04-24 21:24:00,63.6,46.2,29.69,NNW,334,1.0,5.0,53,0.00,,,0.00,VWS V14.01,2013-04-25 01:24:00,
2013-04-24 21:25:00,63.7,45.8,29.69,West,269,0.0,2.0,52,0.00,,,0.00,VWS V14.01,2013-04-25 01:25:00,
2013-04-24 21:26:00,63.7,45.8,29.69,West,269,0.0,2.0,52,0.00,,,0.00,VWS V14.01,2013-04-25 01:26:00,
2013-04-24 21:27:00,63.8,45.9,29.69,East,91,2.0,5.0,52,0.00,,,0.00,VWS V14.01,2013-04-25 01:27:00,
2013-04-24 21:29:00,64.1,45.6,29.69,East,86,0.0,5.0,51,0.00,,,0.00,VWS V14.01,2013-04-25 01:29:00,
2013-04-24 21:30:00,64.4,45.9,29.69,SE,130,0.0,4.0,51,0.00,,,0.00,VWS V14.01,2013-04-25 01:30:00,
2013-04-24 21:31:00,64.4,45.9,29.69,SE,130,0.0,4.0,51,0.00,,,0.00,VWS V14.01,2013-04-25 01:31:00,
2013-04-24 21:32:00,64.5,45.5,29.69,NNE,17,3.0,5.0,50,0.00,,,0.00,VWS V14.01,2013-04-25 01:32:00,
2013-04-24 21:34:00,64.7,45.7,29.69,South,173,3.0,7.0,50,0.00,,,0.00,VWS V14.01,2013-04-25 01:34:00,
2013-04-24 21:35:00,64.8,45.2,29.69,WNW,291,1.0,7.0,49,0.00,,,0.00,VWS V14.01,2013-04-25 01:35:00,
2013-04-24 21:36:00,64.9,45.3,29.69,ESE,115,3.0,3.0,49,0.00,,,0.00,VWS V14.01,2013-04-25 01:36:00,
2013-04-24 21:37:00,65.1,45.5,29.69,ENE,59,3.0,4.0,49,0.00,,,0.00,VWS V14.01,2013-04-25 01:37:00,
2013-04-24 21:39:00,65.4,45.2,29.69,East,94,1.0,6.0,48,0.00,,,0.00,VWS V14.01,2013-04-25 01:39:00,
2013-04-24 21:40:00,65.5,45.8,29.69,East,87,2.0,6.0,49,0.00,,,0.00,VWS V14.01,2013-04-25 01:40:00,
2013-04-24 21:41:00,65.5,45.8,29.69,East,95,10.0,10.0,49,0.00,,,0.00,VWS V14.01,2013-04-25 01:41:00,
2013-04-24 21:42:00,65.6,45.4,29.69,SE,126,1.0,10.0,48,0.00,,,0.00,VWS V14.01,2013-04-25 01:42:00,
2013-04-24 21:44:00,65.7,46.0,29.69,NE,55,4.0,10.0,49,0.00,,,0.00,VWS V14.01,2013-04-25 01:44:00,
2013-04-24 21:45:00,65.7,46.0,29.69,NW,304,2.0,10.0,49,0.00,,,0.00,VWS V14.01,2013-04-25 01:45:00,
2013-04-24 21:46:00,65.7,45.5,29.69,East,80,5.0,7.0,48,0.00,,,0.00,VWS V14.01,2013-04-25 01:46:00,
2013-04-24 21:47:00,65.7,46.0,29.69,South,178,2.0,7.0,49,0.00,,,0.00,VWS V14.01,2013-04-25 01:47:00,
2013-04-24 21:48:00,65.7,46.0,29.69,North,355,3.0,7.0,49,0.00,,,0.00,VWS V14.01,2013-04-25 01:48:00,
2013-04-24 21:49:00,65.8,46.1,29.69,NE,55,4.0,7.0,49,0.00,,,0.00,VWS V14.01,2013-04-25 01:49:00,
2013-04-24 21:50:00,65.8,46.1,29.69,North,355,2.0,7.0,49,0.00,,,0.00,VWS V14.01,2013-04-25 01:50:00,
2013-04-24 21:51:00,65.8,46.1,29.69,East,84,4.0,5.0,49,0.00,,,0.00,VWS V14.01,2013-04-25 01:51:00,
2013-04-24 21:52:00,65.9,46.2,29.69,North,350,1.0,5.0,49,0.00,,,0.00,VWS V14.01,2013-04-25 01:52:00,
2013-04-24 21:53:00,65.9,46.8,29.69,ESE,103,4.0,5.0,50,0.00,,,0.00,VWS V14.01,2013-04-25 01:53:00,
2013-04-24 21:55:00,66.0,46.8,29.69,ESE,104,5.0,7.0,50,0.00,,,0.00,VWS V14.01,2013-04-25 01:55:00,
2013-04-24 21:56:00,66.0,46.3,29.69,ENE,67,1.0,7.0,49,0.00,,,0.00,VWS V14.01,2013-04-25 01:56:00,
2013-04-24 21:57:00,66.1,46.4,29.69,ESE,115,5.0,7.0,49,0.00,,,0.00,VWS V14.01,2013-04-25 01:57:00,
2013-04-24 21:58:00,66.1,46.9,29.69,ESE,111,2.0,11.0,50,0.00,,,0.00,VWS V14.01,2013-04-25 01:58:00,
2013-04-24 22:00:00,66.1,47.5,29.69,SE,128,5.0,11.0,51,0.00,,,0.00,VWS V14.01,2013-04-25 02:00:00,
2013-04-24 22:01:00,66.0,48.4,29.69,SSE,161,3.0,9.0,53,0.00,,,0.00,VWS V14.01,2013-04-25 02:01:00,
2013-04-24 22:02:00,66.0,48.4,29.69,SSE,166,2.0,9.0,53,0.00,,,0.00,VWS V14.01,2013-04-25 02:02:00,
2013-04-24 22:03:00,65.8,47.7,29.68,ENE,60,1.0,11.0,52,0.00,,,0.00,VWS V14.01,2013-04-25 02:03:00,
2013-04-24 22:05:00,65.6,48.5,29.68,SSW,194,5.0,11.0,54,0.00,,,0.00,VWS V14.01,2013-04-25 02:05:00,
2013-04-24 22:07:00,65.5,47.9,29.67,East,98,5.0,7.0,53,0.00,,,0.00,VWS V14.01,2013-04-25 02:07:00,
2013-04-24 22:08:00,65.4,47.8,29.67,ESE,103,3.0,7.0,53,0.00,,,0.00,VWS V14.01,2013-04-25 02:08:00,
2013-04-24 22:10:00,65.4,47.3,29.67,East,79,5.0,5.0,52,0.00,,,0.00,VWS V14.01,2013-04-25 02:10:00,
2013-04-24 22:12:00,65.3,47.8,29.67,ESE,116,4.0,7.0,53,0.00,,,0.00,VWS V14.01,2013-04-25 02:12:00,
2013-04-24 22:13:00,65.4,47.8,29.67,ENE,61,3.0,13.0,53,0.00,,,0.00,VWS V14.01,2013-04-25 02:13:00,
2013-04-24 22:15:00,65.5,47.4,29.67,NE,35,5.0,5.0,52,0.00,,,0.00,VWS V14.01,2013-04-25 02:15:00,
2013-04-24 22:17:00,65.6,47.5,29.67,NE,55,6.0,12.0,52,0.00,,,0.00,VWS V14.01,2013-04-25 02:17:00,
2013-04-24 22:19:00,65.6,47.0,29.67,ENE,78,4.0,12.0,51,0.00,,,0.00,VWS V14.01,2013-04-25 02:19:00,
2013-04-24 22:20:00,65.6,47.5,29.67,ESE,106,4.0,5.0,52,0.00,,,0.00,VWS V14.01,2013-04-25 02:20:00,
2013-04-24 22:22:00,65.7,47.6,29.67,WNW,284,3.0,6.0,52,0.00,,,0.00,VWS V14.01,2013-04-25 02:22:00,
2013-04-24 22:24:00,65.7,47.6,29.67,East,90,4.0,9.0,52,0.00,,,0.00,VWS V14.01,2013-04-25 02:24:00,
2013-04-24 22:25:00,65.6,47.5,29.67,East,90,4.0,6.0,52,0.00,,,0.00,VWS V14.01,2013-04-25 02:25:00,
2013-04-24 22:27:00,65.6,47.5,29.67,ESE,103,4.0,11.0,52,0.00,,,0.00,VWS V14.01,2013-04-25 02:27:00,
2013-04-24 22:29:00,65.6,48.0,29.67,NE,49,5.0,11.0,53,0.00,,,0.00,VWS V14.01,2013-04-25 02:29:00,
2013-04-24 22:30:00,65.6,48.0,29.67,ENE,63,3.0,3.0,53,0.00,,,0.00,VWS V14.01,2013-04-25 02:30:00,
2013-04-24 22:32:00,65.6,48.5,29.67,NNE,18,3.0,7.0,54,0.00,,,0.00,VWS V14.01,2013-04-25 02:32:00,
2013-04-24 22:34:00,65.6,48.5,29.67,ENE,67,9.0,9.0,54,0.00,,,0.00,VWS V14.01,2013-04-25 02:34:00,
2013-04-24 22:35:00,65.6,48.5,29.67,East,100,8.0,11.0,54,0.00,,,0.00,VWS V14.01,2013-04-25 02:35:00,
2013-04-24 22:36:00,65.6,48.0,29.67,NNW,346,3.0,8.0,53,0.00,,,0.00,VWS V14.01,2013-04-25 02:36:00,
2013-04-24 22:37:00,65.6,48.0,29.67,East,80,1.0,8.0,53,0.00,,,0.00,VWS V14.01,2013-04-25 02:37:00,
2013-04-24 22:38:00,65.6,48.0,29.67,East,80,0.0,8.0,53,0.00,,,0.00,VWS V14.01,2013-04-25 02:38:00,
2013-04-24 22:39:00,65.6,48.0,29.67,ENE,65,3.0,8.0,53,0.00,,,0.00,VWS V14.01,2013-04-25 02:39:00,
2013-04-24 22:40:00,65.6,48.0,29.67,WSW,246,2.0,8.0,53,0.00,,,0.00,VWS V14.01,2013-04-25 02:40:00,
2013-04-24 22:41:00,65.6,48.5,29.67,SE,127,4.0,9.0,54,0.00,,,0.00,VWS V14.01,2013-04-25 02:41:00,
2013-04-24 22:42:00,65.6,48.5,29.67,NW,318,2.0,9.0,54,0.00,,,0.00,VWS V14.01,2013-04-25 02:42:00,
2013-04-24 22:43:00,65.6,48.5,29.67,NW,318,0.0,9.0,54,0.00,,,0.00,VWS V14.01,2013-04-25 02:43:00,
2013-04-24 22:44:00,65.6,48.5,29.67,East,96,9.0,9.0,54,0.00,,,0.00,VWS V14.01,2013-04-25 02:44:00,
2013-04-24 22:45:00,65.6,48.5,29.67,East,86,6.0,9.0,54,0.00,,,0.00,VWS V14.01,2013-04-25 02:45:00,
2013-04-24 22:46:00,65.6,48.5,29.67,NE,54,4.0,13.0,54,0.00,,,0.00,VWS V14.01,2013-04-25 02:46:00,
2013-04-24 22:47:00,65.7,48.6,29.67,ESE,114,3.0,13.0,54,0.00,,,0.00,VWS V14.01,2013-04-25 02:47:00,
2013-04-24 22:48:00,65.7,48.6,29.67,SSE,150,2.0,13.0,54,0.00,,,0.00,VWS V14.01,2013-04-25 02:48:00,
2013-04-24 22:49:00,65.8,48.7,29.68,East,92,3.0,13.0,54,0.00,,,0.00,VWS V14.01,2013-04-25 02:49:00,
2013-04-24 22:50:00,65.8,49.2,29.68,East,101,5.0,13.0,55,0.00,,,0.00,VWS V14.01,2013-04-25 02:50:00,
2013-04-24 22:51:00,65.7,48.6,29.68,NE,44,4.0,10.0,54,0.00,,,0.00,VWS V14.01,2013-04-25 02:51:00,
2013-04-24 22:53:00,65.7,48.6,29.68,NNE,24,3.0,15.0,54,0.00,,,0.00,VWS V14.01,2013-04-25 02:53:00,
2013-04-24 22:55:00,65.9,48.8,29.68,East,90,6.0,11.0,54,0.00,,,0.00,VWS V14.01,2013-04-25 02:55:00,
2013-04-24 22:57:00,65.9,49.3,29.68,West,265,6.0,15.0,55,0.00,,,0.00,VWS V14.01,2013-04-25 02:57:00,
2013-04-24 22:58:00,65.9,49.3,29.68,ESE,111,5.0,15.0,55,0.00,,,0.00,VWS V14.01,2013-04-25 02:58:00,
2013-04-24 23:00:00,65.9,48.8,29.68,East,100,5.0,15.0,54,0.00,,,0.00,VWS V14.01,2013-04-25 03:00:00,
2013-04-24 23:01:00,65.9,48.8,29.68,North,5,13.0,13.0,54,0.00,,,0.00,VWS V14.01,2013-04-25 03:01:00,
2013-04-24 23:02:00,65.9,48.8,29.67,North,360,11.0,14.0,54,0.00,,,0.00,VWS V14.01,2013-04-25 03:02:00,
2013-04-24 23:03:00,65.9,49.3,29.67,North,355,7.0,14.0,55,0.00,,,0.00,VWS V14.01,2013-04-25 03:03:00,
2013-04-24 23:05:00,65.9,49.3,29.67,East,89,9.0,14.0,55,0.00,,,0.00,VWS V14.01,2013-04-25 03:05:00,
2013-04-24 23:06:00,65.9,49.3,29.67,East,88,4.0,11.0,55,0.00,,,0.00,VWS V14.01,2013-04-25 03:06:00,
2013-04-24 23:07:00,65.8,49.2,29.67,ENE,67,7.0,18.0,55,0.00,,,0.00,VWS V14.01,2013-04-25 03:07:00,
2013-04-24 23:08:00,65.8,49.2,29.67,NE,48,2.0,18.0,55,0.00,,,0.00,VWS V14.01,2013-04-25 03:08:00,
2013-04-24 23:09:00,65.8,49.2,29.67,East,82,4.0,18.0,55,0.00,,,0.00,VWS V14.01,2013-04-25 03:09:00,
2013-04-24 23:10:00,65.8,49.2,29.67,East,91,2.0,18.0,55,0.00,,,0.00,VWS V14.01,2013-04-25 03:10:00,
2013-04-24 23:11:00,65.8,49.2,29.67,ESE,122,2.0,12.0,55,0.00,,,0.00,VWS V14.01,2013-04-25 03:11:00,
2013-04-24 23:12:00,65.7,49.1,29.67,ENE,69,5.0,12.0,55,0.00,,,0.00,VWS V14.01,2013-04-25 03:12:00,
2013-04-24 23:13:00,65.7,49.1,29.67,ESE,110,5.0,12.0,55,0.00,,,0.00,VWS V14.01,2013-04-25 03:13:00,
2013-04-24 23:14:00,65.7,49.1,29.67,ENE,65,5.0,12.0,55,0.00,,,0.00,VWS V14.01,2013-04-25 03:14:00,
2013-04-24 23:15:00,65.6,49.0,29.67,ESE,107,10.0,12.0,55,0.00,,,0.00,VWS V14.01,2013-04-25 03:15:00,
2013-04-24 23:16:00,65.6,49.0,29.67,NW,325,1.0,19.0,55,0.00,,,0.00,VWS V14.01,2013-04-25 03:16:00,
2013-04-24 23:18:00,65.5,49.4,29.66,NNW,347,3.0,19.0,56,0.00,,,0.00,VWS V14.01,2013-04-25 03:18:00,
2013-04-24 23:19:00,65.4,49.3,29.66,SE,128,3.0,19.0,56,0.00,,,0.00,VWS V14.01,2013-04-25 03:19:00,
2013-04-24 23:20:00,65.4,49.3,29.66,ENE,72,5.0,19.0,56,0.00,,,0.00,VWS V14.01,2013-04-25 03:20:00,
2013-04-24 23:22:00,65.3,49.2,29.66,East,90,4.0,12.0,56,0.00,,,0.00,VWS V14.01,2013-04-25 03:22:00,
2013-04-24 23:23:00,65.3,49.2,29.66,East,97,7.0,12.0,56,0.00,,,0.00,VWS V14.01,2013-04-25 03:23:00,
2013-04-24 23:24:00,65.3,49.2,29.66,North,360,4.0,12.0,56,0.00,,,0.00,VWS V14.01,2013-04-25 03:24:00,
2013-04-24 23:25:00,65.3,49.2,29.66,East,92,4.0,12.0,56,0.00,,,0.00,VWS V14.01,2013-04-25 03:25:00,
2013-04-24 23:27:00,65.3,49.2,29.66,ESE,104,4.0,11.0,56,0.00,,,0.00,VWS V14.01,2013-04-25 03:27:00,
2013-04-24 23:28:00,65.3,49.2,29.66,East,84,2.0,11.0,56,0.00,,,0.00,VWS V14.01,2013-04-25 03:28:00,
2013-04-24 23:29:00,65.2,49.1,29.66,East,88,1.0,11.0,56,0.00,,,0.00,VWS V14.01,2013-04-25 03:29:00,
2013-04-24 23:30:00,65.2,49.1,29.66,ESE,107,6.0,11.0,56,0.00,,,0.00,VWS V14.01,2013-04-25 03:30:00,
2013-04-24 23:32:00,65.2,49.1,29.66,North,360,1.0,11.0,56,0.00,,,0.00,VWS V14.01,2013-04-25 03:32:00,
2013-04-24 23:33:00,65.2,49.1,29.66,ENE,72,6.0,11.0,56,0.00,,,0.00,VWS V14.01,2013-04-25 03:33:00,
2013-04-24 23:34:00,65.2,49.6,29.66,East,90,4.0,11.0,57,0.00,,,0.00,VWS V14.01,2013-04-25 03:34:00,
2013-04-24 23:35:00,65.2,49.1,29.66,SE,144,3.0,11.0,56,0.00,,,0.00,VWS V14.01,2013-04-25 03:35:00,
2013-04-24 23:37:00,65.1,49.5,29.66,NE,50,3.0,5.0,57,0.00,,,0.00,VWS V14.01,2013-04-25 03:37:00,
2013-04-24 23:38:00,65.1,49.5,29.66,East,86,2.0,5.0,57,0.00,,,0.00,VWS V14.01,2013-04-25 03:38:00,
2013-04-24 23:39:00,65.0,49.4,29.66,NNW,348,4.0,6.0,57,0.00,,,0.00,VWS V14.01,2013-04-25 03:39:00,
2013-04-24 23:40:00,65.0,49.4,29.66,ENE,67,9.0,10.0,57,0.00,,,0.00,VWS V14.01,2013-04-25 03:40:00,
2013-04-24 23:42:00,64.9,49.3,29.66,ENE,66,4.0,11.0,57,0.00,,,0.00,VWS V14.01,2013-04-25 03:42:00,
2013-04-24 23:43:00,64.9,49.3,29.66,ESE,111,0.0,11.0,57,0.00,,,0.00,VWS V14.01,2013-04-25 03:43:00,
2013-04-24 23:44:00,64.8,49.2,29.66,ESE,110,3.0,11.0,57,0.00,,,0.00,VWS V14.01,2013-04-25 03:44:00,
2013-04-24 23:45:00,64.8,49.2,29.66,ENE,69,3.0,11.0,57,0.00,,,0.00,VWS V14.01,2013-04-25 03:45:00,
2013-04-24 23:47:00,64.8,49.7,29.66,ENE,76,3.0,9.0,58,0.00,,,0.00,VWS V14.01,2013-04-25 03:47:00,
2013-04-24 23:48:00,64.8,49.2,29.66,ENE,71,0.0,9.0,57,0.00,,,0.00,VWS V14.01,2013-04-25 03:48:00,
2013-04-24 23:49:00,64.8,49.7,29.66,ENE,63,8.0,9.0,58,0.00,,,0.00,VWS V14.01,2013-04-25 03:49:00,
2013-04-24 23:50:00,64.7,49.6,29.66,ENE,65,5.0,9.0,58,0.00,,,0.00,VWS V14.01,2013-04-25 03:50:00,
2013-04-24 23:52:00,64.7,49.6,29.66,SSE,151,6.0,12.0,58,0.00,,,0.00,VWS V14.01,2013-04-25 03:52:00,
2013-04-24 23:53:00,64.7,49.6,29.66,ENE,65,3.0,12.0,58,0.00,,,0.00,VWS V14.01,2013-04-25 03:53:00,
2013-04-24 23:54:00,64.7,49.6,29.66,SE,134,0.0,12.0,58,0.00,,,0.00,VWS V14.01,2013-04-25 03:54:00,
2013-04-24 23:55:00,64.7,49.6,29.66,NE,51,3.0,6.0,58,0.00,,,0.00,VWS V14.01,2013-04-25 03:55:00,
2013-04-24 23:57:00,64.6,49.5,29.66,East,84,5.0,13.0,58,0.00,,,0.00,VWS V14.01,2013-04-25 03:57:00,
2013-04-24 23:58:00,64.6,49.5,29.66,ENE,69,11.0,13.0,58,0.00,,,0.00,VWS V14.01,2013-04-25 03:58:00,
2013-04-24 23:59:00,64.6,49.5,29.66,ENE,68,3.0,13.0,58,0.00,,,0.00,VWS V14.01,2013-04-25 03:59:00,